| time (UTC) | temp F | wind direction | speed MPH | gust MPH | rain 1hr in | rain 24hr in | rain mn in | humidity % | barometer mb |
| 20260906201158 | 76 | 5 | 3.0 | 5.0 | 0.00 | 0.02 | 0.02 | 66 | 1014.2 |
| 20260906201059 | 76 | 5 | 4.0 | 4.0 | 0.00 | 0.02 | 0.02 | 65 | 1014.2 |
| 20260906200959 | 76 | 142 | 2.0 | 4.0 | 0.00 | 0.02 | 0.02 | 66 | 1014.3 |
| 20260906200658 | 76 | 71 | 2.0 | 4.0 | 0.00 | 0.02 | 0.02 | 68 | 1014.2 |
| 20260906200558 | 76 | 79 | 1.0 | 4.0 | 0.00 | 0.02 | 0.02 | 68 | 1014.2 |
| 20260906200500 | 76 | 79 | 1.0 | 4.0 | 0.00 | 0.02 | 0.02 | 68 | 1014.2 |
| 20260906200359 | 76 | 79 | 1.0 | 4.0 | 0.00 | 0.02 | 0.02 | 68 | 1014.3 |
| 20260906200159 | 76 | 79 | 1.0 | 5.0 | 0.00 | 0.02 | 0.02 | 68 | 1014.2 |
| 20260906200059 | 76 | 79 | 0.0 | 5.0 | 0.00 | 0.02 | 0.02 | 69 | 1014.3 |
| 20260906200001 | 76 | 80 | 2.0 | 5.0 | 0.00 | 0.02 | 0.02 | 68 | 1014.2 |
| 20260906195858 | 75 | 81 | 0.0 | 5.0 | 0.00 | 0.02 | 0.02 | 68 | 1014.3 |
| 20260906195758 | 75 | 69 | 3.0 | 5.0 | 0.00 | 0.02 | 0.02 | 68 | 1014.2 |
| 20260906195657 | 75 | 40 | 1.0 | 5.0 | 0.00 | 0.02 | 0.02 | 69 | 1014.2 |
| 20260906195558 | 75 | 43 | 2.0 | 5.0 | 0.00 | 0.02 | 0.02 | 69 | 1014.2 |
| 20260906195459 | 75 | 43 | 2.0 | 5.0 | 0.00 | 0.02 | 0.02 | 68 | 1014.2 |
| 20260906195359 | 75 | 34 | 4.0 | 5.0 | 0.00 | 0.02 | 0.02 | 68 | 1014.2 |
| 20260906195258 | 75 | 21 | 4.0 | 5.0 | 0.00 | 0.02 | 0.02 | 68 | 1014.2 |
| 20260906195158 | 75 | 360 | 1.0 | 5.0 | 0.00 | 0.02 | 0.02 | 69 | 1014.2 |
| 20260906195058 | 75 | 5 | 2.0 | 5.0 | 0.00 | 0.02 | 0.02 | 68 | 1014.3 |
| 20260906194858 | 75 | 360 | 1.0 | 5.0 | 0.00 | 0.02 | 0.02 | 68 | 1014.2 |
| 20260906194459 | 75 | 128 | 0.0 | 1.0 | 0.00 | 0.02 | 0.02 | 72 | 1014.2 |
| 20260906194258 | 75 | 128 | 0.0 | 4.0 | 0.00 | 0.02 | 0.02 | 69 | 1014.2 |
| 20260906194158 | 75 | 128 | 0.0 | 4.0 | 0.00 | 0.02 | 0.02 | 69 | 1014.2 |
| 20260906194058 | 75 | 128 | 0.0 | 4.0 | 0.00 | 0.02 | 0.02 | 69 | 1014.2 |
| 20260906194000 | 75 | 128 | 0.0 | 4.0 | 0.00 | 0.02 | 0.02 | 70 | 1014.2 |
| 20260906193858 | 75 | 128 | 0.0 | 4.0 | 0.00 | 0.02 | 0.02 | 70 | 1014.2 |
| 20260906193758 | 75 | 128 | 0.0 | 4.0 | 0.00 | 0.02 | 0.02 | 70 | 1014.3 |
| 20260906193658 | 75 | 128 | 1.0 | 4.0 | 0.00 | 0.02 | 0.02 | 69 | 1014.3 |
| 20260906193558 | 75 | 128 | 1.0 | 4.0 | 0.00 | 0.02 | 0.02 | 68 | 1014.2 |
| 20260906193357 | 75 | 23 | 2.0 | 4.0 | 0.00 | 0.02 | 0.02 | 68 | 1014.2 |
| 20260906193159 | 75 | 69 | 0.0 | 7.0 | 0.00 | 0.02 | 0.02 | 69 | 1014.3 |
| 20260906193058 | 75 | 69 | 0.0 | 7.0 | 0.00 | 0.02 | 0.02 | 69 | 1014.3 |
| 20260906193000 | 75 | 69 | 0.0 | 7.0 | 0.00 | 0.02 | 0.02 | 70 | 1014.3 |
| 20260906192858 | 75 | 69 | 0.0 | 7.0 | 0.00 | 0.02 | 0.02 | 70 | 1014.3 |
| 20260906192758 | 75 | 108 | 1.0 | 7.0 | 0.00 | 0.02 | 0.02 | 72 | 1014.4 |
| 20260906192657 | 75 | 94 | 2.0 | 7.0 | 0.00 | 0.02 | 0.02 | 70 | 1014.4 |
| 20260906192559 | 75 | 161 | 1.0 | 7.0 | 0.00 | 0.02 | 0.02 | 71 | 1014.4 |
| 20260906192459 | 75 | 167 | 1.0 | 7.0 | 0.00 | 0.02 | 0.02 | 70 | 1014.4 |
| 20260906192258 | 75 | 72 | 4.0 | 6.0 | 0.00 | 0.02 | 0.02 | 69 | 1014.4 |
| 20260906192159 | 75 | 98 | 0.0 | 6.0 | 0.00 | 0.02 | 0.02 | 69 | 1014.4 |
| 20260906192058 | 75 | 155 | 0.0 | 6.0 | 0.00 | 0.02 | 0.02 | 69 | 1014.4 |
| 20260906191758 | 75 | 79 | 4.0 | 6.0 | 0.00 | 0.02 | 0.02 | 71 | 1014.4 |
| 20260906191658 | 75 | 163 | 1.0 | 4.0 | 0.00 | 0.02 | 0.02 | 70 | 1014.4 |
| 20260906191500 | 75 | 162 | 1.0 | 4.0 | 0.00 | 0.02 | 0.02 | 70 | 1014.4 |
| 20260906191258 | 75 | 91 | 2.0 | 4.0 | 0.00 | 0.02 | 0.02 | 71 | 1014.4 |
| 20260906191157 | 75 | 67 | 2.0 | 3.0 | 0.00 | 0.02 | 0.02 | 71 | 1014.4 |
| 20260906191059 | 75 | 61 | 1.0 | 3.0 | 0.00 | 0.02 | 0.02 | 69 | 1014.4 |
| 20260906190958 | 75 | 140 | 1.0 | 4.0 | 0.00 | 0.02 | 0.02 | 70 | 1014.4 |
| 20260906190857 | 75 | 140 | 2.0 | 4.0 | 0.00 | 0.02 | 0.02 | 69 | 1014.5 |
| 20260906190759 | 74 | 139 | 1.0 | 4.0 | 0.00 | 0.02 | 0.02 | 70 | 1014.4 |
| 20260906190658 | 74 | 139 | 2.0 | 4.0 | 0.00 | 0.02 | 0.02 | 72 | 1014.4 |
| 20260906190600 | 74 | 139 | 3.0 | 4.0 | 0.00 | 0.02 | 0.02 | 72 | 1014.4 |
| 20260906190357 | 74 | 107 | 1.0 | 4.0 | 0.00 | 0.02 | 0.02 | 72 | 1014.5 |
| 20260906190258 | 74 | 103 | 1.0 | 4.0 | 0.00 | 0.02 | 0.02 | 72 | 1014.5 |
| 20260906190157 | 74 | 103 | 3.0 | 4.0 | 0.00 | 0.02 | 0.02 | 71 | 1014.5 |
| 20260906190058 | 74 | 5 | 1.0 | 4.0 | 0.00 | 0.02 | 0.02 | 72 | 1014.5 |
| 20260906185858 | 74 | 360 | 3.0 | 4.0 | 0.00 | 0.02 | 0.02 | 70 | 1014.7 |
| 20260906185758 | 74 | 5 | 3.0 | 4.0 | 0.00 | 0.02 | 0.02 | 69 | 1014.6 |
| 20260906185658 | 74 | 244 | 0.0 | 4.0 | 0.00 | 0.02 | 0.02 | 69 | 1014.6 |
| 20260906185558 | 74 | 244 | 3.0 | 3.0 | 0.00 | 0.02 | 0.02 | 72 | 1014.7 |
| 20260906185459 | 74 | 355 | 1.0 | 3.0 | 0.00 | 0.02 | 0.02 | 72 | 1014.7 |
| 20260906185357 | 74 | 355 | 2.0 | 3.0 | 0.00 | 0.02 | 0.02 | 73 | 1014.7 |
| 20260906185259 | 74 | 355 | 1.0 | 6.0 | 0.00 | 0.02 | 0.02 | 72 | 1014.7 |
| 20260906185158 | 74 | 355 | 0.0 | 6.0 | 0.00 | 0.02 | 0.02 | 72 | 1014.7 |
| 20260906184959 | 74 | 355 | 0.0 | 6.0 | 0.00 | 0.02 | 0.02 | 71 | 1014.7 |
| 20260906184857 | 74 | 355 | 2.0 | 6.0 | 0.00 | 0.02 | 0.02 | 71 | 1014.8 |
| 20260906184759 | 74 | 355 | 2.0 | 11.0 | 0.00 | 0.02 | 0.02 | 71 | 1014.8 |
| 20260906184658 | 75 | 355 | 0.0 | 11.0 | 0.00 | 0.02 | 0.02 | 71 | 1014.8 |
| 20260906184558 | 75 | 355 | 0.0 | 11.0 | 0.00 | 0.02 | 0.02 | 71 | 1014.8 |
| 20260906184500 | 75 | 355 | 1.0 | 11.0 | 0.00 | 0.02 | 0.02 | 71 | 1014.8 |
| 20260906184358 | 75 | 351 | 2.0 | 11.0 | 0.00 | 0.02 | 0.02 | 71 | 1014.8 |
| 20260906184257 | 75 | 57 | 1.0 | 11.0 | 0.00 | 0.02 | 0.02 | 71 | 1014.7 |
| 20260906184057 | 75 | 38 | 3.0 | 11.0 | 0.00 | 0.02 | 0.02 | 71 | 1014.8 |
| 20260906183858 | 76 | 50 | 7.0 | 11.0 | 0.00 | 0.02 | 0.02 | 71 | 1014.7 |
| 20260906183758 | 76 | 5 | 5.0 | 7.0 | 0.00 | 0.02 | 0.02 | 71 | 1014.6 |
| 20260906183658 | 75 | 158 | 6.0 | 6.0 | 0.00 | 0.02 | 0.02 | 71 | 1014.8 |
| 20260906183558 | 75 | 9 | 1.0 | 5.0 | 0.00 | 0.02 | 0.02 | 72 | 1014.7 |
| 20260906183500 | 75 | 9 | 0.0 | 5.0 | 0.00 | 0.02 | 0.02 | 69 | 1014.7 |
| 20260906183359 | 75 | 9 | 2.0 | 5.0 | 0.00 | 0.02 | 0.02 | 69 | 1014.8 |
| 20260906183259 | 75 | 9 | 3.0 | 5.0 | 0.00 | 0.02 | 0.02 | 71 | 1014.9 |
| 20260906183058 | 76 | 13 | 0.0 | 5.0 | 0.00 | 0.02 | 0.02 | 70 | 1014.9 |
| 20260906183000 | 76 | 25 | 4.0 | 5.0 | 0.00 | 0.02 | 0.02 | 69 | 1014.9 |
| 20260906182859 | 76 | 34 | 2.0 | 5.0 | 0.00 | 0.02 | 0.02 | 68 | 1014.9 |
| 20260906182758 | 76 | 355 | 3.0 | 5.0 | 0.00 | 0.02 | 0.02 | 69 | 1014.8 |
| 20260906182658 | 76 | 35 | 1.0 | 5.0 | 0.00 | 0.02 | 0.02 | 69 | 1014.8 |
| 20260906182558 | 76 | 46 | 1.0 | 5.0 | 0.00 | 0.02 | 0.02 | 69 | 1014.8 |
| 20260906182500 | 76 | 57 | 3.0 | 5.0 | 0.00 | 0.02 | 0.02 | 70 | 1014.8 |
| 20260906182258 | 76 | 130 | 0.0 | 3.0 | 0.00 | 0.02 | 0.02 | 68 | 1014.8 |
| 20260906182059 | 77 | 130 | 0.0 | 4.0 | 0.00 | 0.02 | 0.02 | 70 | 1014.8 |
| 20260906182000 | 77 | 26 | 0.0 | 6.0 | 0.00 | 0.02 | 0.02 | 71 | 1014.8 |
| 20260906181758 | 77 | 24 | 0.0 | 6.0 | 0.00 | 0.02 | 0.02 | 74 | 1014.8 |
| 20260906181659 | 76 | 17 | 0.0 | 6.0 | 0.00 | 0.02 | 0.02 | 70 | 1014.9 |
| 20260906181459 | 76 | 17 | 0.0 | 6.0 | 0.00 | 0.02 | 0.02 | 69 | 1014.9 |
| 20260906181359 | 76 | 17 | 1.0 | 6.0 | 0.00 | 0.02 | 0.02 | 69 | 1014.8 |
| 20260906181259 | 76 | 360 | 1.0 | 6.0 | 0.00 | 0.02 | 0.02 | 68 | 1014.9 |
| 20260906181158 | 76 | 360 | 2.0 | 10.0 | 0.00 | 0.02 | 0.02 | 69 | 1014.9 |
| 20260906181059 | 76 | 355 | 3.0 | 10.0 | 0.00 | 0.02 | 0.02 | 71 | 1014.9 |
| 20260906181000 | 76 | 26 | 2.0 | 10.0 | 0.00 | 0.02 | 0.02 | 71 | 1014.8 |
| 20260906180859 | 76 | 50 | 0.0 | 10.0 | 0.00 | 0.02 | 0.02 | 70 | 1014.8 |
| 20260906180758 | 76 | 50 | 1.0 | 10.0 | 0.00 | 0.02 | 0.02 | 71 | 1014.8 |
| 20260906180657 | 76 | 50 | 2.0 | 10.0 | 0.00 | 0.02 | 0.02 | 69 | 1014.9 |
| 20260906180559 | 76 | 42 | 4.0 | 10.0 | 0.00 | 0.02 | 0.02 | 70 | 1014.8 |
| 20260906180500 | 76 | 34 | 2.0 | 10.0 | 0.00 | 0.02 | 0.02 | 68 | 1014.8 |
| 20260906180159 | 76 | 44 | 5.0 | 9.0 | 0.00 | 0.02 | 0.02 | 68 | 1014.8 |
| 20260906180059 | 76 | 65 | 6.0 | 8.0 | 0.00 | 0.02 | 0.02 | 68 | 1014.8 |
| 20260906175858 | 76 | 53 | 1.0 | 11.0 | 0.00 | 0.02 | 0.02 | 66 | 1014.8 |
| 20260906175758 | 76 | 42 | 2.0 | 11.0 | 0.00 | 0.02 | 0.02 | 67 | 1014.9 |
| 20260906175658 | 76 | 17 | 5.0 | 11.0 | 0.00 | 0.02 | 0.02 | 66 | 1014.9 |
| 20260906175558 | 76 | 53 | 4.0 | 11.0 | 0.00 | 0.02 | 0.02 | 67 | 1014.9 |
| 20260906175459 | 76 | 38 | 2.0 | 11.0 | 0.00 | 0.02 | 0.02 | 70 | 1014.9 |
| 20260906175258 | 76 | 37 | 2.0 | 11.0 | 0.00 | 0.02 | 0.02 | 69 | 1014.9 |
| 20260906175058 | 76 | 94 | 3.0 | 11.0 | 0.01 | 0.02 | 0.02 | 70 | 1014.8 |
| 20260906175000 | 76 | 126 | 4.0 | 9.0 | 0.01 | 0.02 | 0.02 | 70 | 1014.9 |
| 20260906174857 | 76 | 73 | 8.0 | 8.0 | 0.01 | 0.02 | 0.02 | 70 | 1014.9 |
| 20260906174758 | 76 | 73 | 4.0 | 8.0 | 0.01 | 0.02 | 0.02 | 70 | 1015.0 |
| 20260906174659 | 76 | 43 | 4.0 | 8.0 | 0.01 | 0.02 | 0.02 | 69 | 1014.9 |
| 20260906174558 | 76 | 294 | 3.0 | 8.0 | 0.01 | 0.02 | 0.02 | 69 | 1014.9 |
| 20260906174459 | 76 | 345 | 1.0 | 8.0 | 0.01 | 0.02 | 0.02 | 68 | 1014.9 |
| 20260906174159 | 76 | 32 | 4.0 | 8.0 | 0.01 | 0.02 | 0.02 | 70 | 1015.0 |
| 20260906174059 | 76 | 9 | 7.0 | 8.0 | 0.01 | 0.02 | 0.02 | 71 | 1015.1 |
| 20260906174000 | 76 | 87 | 2.0 | 8.0 | 0.01 | 0.02 | 0.02 | 71 | 1015.0 |
| 20260906173857 | 76 | 92 | 1.0 | 8.0 | 0.01 | 0.02 | 0.02 | 70 | 1015.0 |
| 20260906173759 | 76 | 100 | 1.0 | 8.0 | 0.01 | 0.02 | 0.02 | 69 | 1015.0 |
| 20260906173558 | 76 | 142 | 3.0 | 8.0 | 0.01 | 0.02 | 0.02 | 72 | 1015.0 |
| 20260906173500 | 76 | 73 | 7.0 | 7.0 | 0.01 | 0.02 | 0.02 | 71 | 1015.0 |
| 20260906173359 | 75 | 76 | 3.0 | 8.0 | 0.01 | 0.02 | 0.02 | 70 | 1015.0 |
| 20260906173258 | 75 | 60 | 1.0 | 11.0 | 0.01 | 0.02 | 0.02 | 71 | 1015.0 |
| 20260906173158 | 75 | 109 | 2.0 | 11.0 | 0.01 | 0.02 | 0.02 | 70 | 1015.2 |
| 20260906173057 | 75 | 43 | 1.0 | 11.0 | 0.01 | 0.02 | 0.02 | 70 | 1015.2 |
| 20260906173000 | 75 | 51 | 3.0 | 13.0 | 0.01 | 0.02 | 0.02 | 69 | 1015.2 |
| 20260906172859 | 75 | 20 | 4.0 | 13.0 | 0.01 | 0.02 | 0.02 | 69 | 1015.2 |
| 20260906172759 | 75 | 51 | 3.0 | 13.0 | 0.01 | 0.02 | 0.02 | 70 | 1015.2 |
| 20260906172657 | 75 | 338 | 4.0 | 13.0 | 0.01 | 0.02 | 0.02 | 70 | 1015.2 |
| 20260906172558 | 75 | 355 | 2.0 | 13.0 | 0.01 | 0.02 | 0.02 | 71 | 1015.3 |
| 20260906172459 | 75 | 79 | 1.0 | 13.0 | 0.01 | 0.02 | 0.02 | 71 | 1015.3 |
| 20260906172359 | 75 | 342 | 9.0 | 13.0 | 0.01 | 0.02 | 0.02 | 70 | 1015.2 |
| 20260906172158 | 75 | 127 | 1.0 | 13.0 | 0.01 | 0.02 | 0.02 | 70 | 1015.2 |
| 20260906172057 | 75 | 44 | 4.0 | 10.0 | 0.01 | 0.02 | 0.02 | 72 | 1015.3 |
| 20260906172000 | 75 | 345 | 0.0 | 10.0 | 0.01 | 0.02 | 0.02 | 71 | 1015.3 |
| 20260906171858 | 75 | 5 | 3.0 | 10.0 | 0.01 | 0.02 | 0.02 | 72 | 1015.3 |
| 20260906171758 | 75 | 32 | 5.0 | 10.0 | 0.01 | 0.02 | 0.02 | 72 | 1015.3 |
| 20260906171658 | 75 | 21 | 9.0 | 10.0 | 0.01 | 0.02 | 0.02 | 73 | 1015.3 |
| 20260906171558 | 75 | 124 | 2.0 | 10.0 | 0.01 | 0.02 | 0.02 | 74 | 1015.3 |
| 20260906171458 | 75 | 351 | 6.0 | 10.0 | 0.01 | 0.02 | 0.02 | 74 | 1015.2 |
| 20260906171258 | 74 | 63 | 2.0 | 10.0 | 0.01 | 0.02 | 0.02 | 73 | 1015.3 |
| 20260906171158 | 74 | 63 | 0.0 | 10.0 | 0.01 | 0.02 | 0.02 | 73 | 1015.4 |
| 20260906171059 | 74 | 37 | 1.0 | 10.0 | 0.01 | 0.02 | 0.02 | 74 | 1015.3 |
| 20260906171000 | 74 | 88 | 3.0 | 10.0 | 0.01 | 0.02 | 0.02 | 75 | 1015.4 |
| 20260906170857 | 74 | 25 | 1.0 | 10.0 | 0.01 | 0.02 | 0.02 | 78 | 1015.3 |
| 20260906170758 | 74 | 41 | 1.0 | 10.0 | 0.01 | 0.02 | 0.02 | 76 | 1015.3 |
| 20260906170658 | 74 | 42 | 2.0 | 10.0 | 0.01 | 0.02 | 0.02 | 75 | 1015.3 |
| 20260906170558 | 74 | 46 | 5.0 | 10.0 | 0.01 | 0.02 | 0.02 | 74 | 1015.3 |
| 20260906170258 | 74 | 141 | 3.0 | 10.0 | 0.01 | 0.02 | 0.02 | 74 | 1015.3 |
| 20260906170157 | 74 | 91 | 4.0 | 10.0 | 0.01 | 0.02 | 0.02 | 75 | 1015.3 |
| 20260906170000 | 74 | 61 | 3.0 | 10.0 | 0.01 | 0.02 | 0.02 | 74 | 1015.3 |
| 20260906165857 | 74 | 26 | 2.0 | 10.0 | 0.01 | 0.02 | 0.02 | 75 | 1015.3 |
| 20260906165759 | 74 | 11 | 2.0 | 10.0 | 0.01 | 0.02 | 0.02 | 73 | 1015.3 |
| 20260906165600 | 74 | 342 | 1.0 | 10.0 | 0.01 | 0.02 | 0.02 | 73 | 1015.3 |
| 20260906165459 | 74 | 44 | 2.0 | 10.0 | 0.01 | 0.02 | 0.02 | 72 | 1015.4 |
| 20260906165357 | 74 | 67 | 4.0 | 10.0 | 0.01 | 0.02 | 0.02 | 73 | 1015.3 |
| 20260906165257 | 74 | 25 | 5.0 | 8.0 | 0.01 | 0.02 | 0.02 | 74 | 1015.3 |
| 20260906165056 | 74 | 5 | 4.0 | 7.0 | 0.00 | 0.01 | 0.01 | 74 | 1015.3 |
| 20260906164958 | 74 | 82 | 1.0 | 6.0 | 0.00 | 0.01 | 0.01 | 74 | 1015.3 |
| 20260906164858 | 74 | 309 | 2.0 | 6.0 | 0.00 | 0.01 | 0.01 | 74 | 1015.3 |
| 20260906164756 | 74 | 360 | 3.0 | 9.0 | 0.00 | 0.01 | 0.01 | 75 | 1015.3 |
| 20260906164657 | 74 | 61 | 2.0 | 11.0 | 0.00 | 0.01 | 0.01 | 74 | 1015.3 |
| 20260906164556 | 74 | 5 | 3.0 | 11.0 | 0.00 | 0.01 | 0.01 | 73 | 1015.3 |
| 20260906164358 | 74 | 10 | 3.0 | 11.0 | 0.00 | 0.01 | 0.01 | 75 | 1015.3 |
| 20260906164256 | 74 | 22 | 3.0 | 13.0 | 0.00 | 0.01 | 0.01 | 77 | 1015.3 |
| 20260906164157 | 74 | 24 | 1.0 | 13.0 | 0.00 | 0.01 | 0.01 | 78 | 1015.3 |
| 20260906164058 | 74 | 26 | 4.0 | 13.0 | 0.00 | 0.01 | 0.01 | 76 | 1015.3 |
| 20260906163959 | 74 | 14 | 1.0 | 13.0 | 0.00 | 0.01 | 0.01 | 76 | 1015.3 |
| 20260906163856 | 74 | 23 | 3.0 | 13.0 | 0.00 | 0.01 | 0.01 | 75 | 1015.3 |
| 20260906163756 | 74 | 53 | 4.0 | 13.0 | 0.00 | 0.01 | 0.01 | 75 | 1015.3 |
| 20260906163657 | 74 | 24 | 4.0 | 13.0 | 0.00 | 0.01 | 0.01 | 76 | 1015.4 |
| 20260906163457 | 74 | 5 | 8.0 | 13.0 | 0.00 | 0.01 | 0.01 | 76 | 1015.4 |
| 20260906163357 | 74 | 342 | 3.0 | 13.0 | 0.00 | 0.01 | 0.01 | 75 | 1015.4 |
| 20260906163258 | 74 | 54 | 5.0 | 9.0 | 0.00 | 0.01 | 0.01 | 74 | 1015.4 |
| 20260906163057 | 75 | 24 | 9.0 | 9.0 | 0.00 | 0.01 | 0.01 | 74 | 1015.4 |
| 20260906162958 | 75 | 355 | 3.0 | 9.0 | 0.00 | 0.01 | 0.01 | 76 | 1015.3 |
| 20260906162857 | 75 | 360 | 6.0 | 9.0 | 0.00 | 0.01 | 0.01 | 78 | 1015.3 |
| 20260906162757 | 75 | 19 | 3.0 | 6.0 | 0.00 | 0.01 | 0.01 | 75 | 1015.2 |
| 20260906162658 | 75 | 312 | 2.0 | 6.0 | 0.00 | 0.01 | 0.01 | 77 | 1015.2 |
| 20260906162558 | 75 | 30 | 6.0 | 6.0 | 0.00 | 0.01 | 0.01 | 77 | 1015.2 |
| 20260906162500 | 75 | 91 | 2.0 | 6.0 | 0.00 | 0.01 | 0.01 | 77 | 1015.2 |
| 20260906162356 | 74 | 98 | 6.0 | 6.0 | 0.00 | 0.01 | 0.01 | 80 | 1015.3 |
| 20260906162258 | 74 | 58 | 3.0 | 6.0 | 0.00 | 0.01 | 0.01 | 78 | 1015.3 |
| 20260906162158 | 74 | 16 | 3.0 | 6.0 | 0.00 | 0.01 | 0.01 | 79 | 1015.3 |
| 20260906162057 | 74 | 30 | 3.0 | 6.0 | 0.00 | 0.01 | 0.01 | 79 | 1015.3 |
| 20260906161958 | 73 | 30 | 0.0 | 6.0 | 0.00 | 0.01 | 0.01 | 79 | 1015.2 |
| 20260906161858 | 73 | 19 | 1.0 | 6.0 | 0.00 | 0.01 | 0.01 | 78 | 1015.3 |
| 20260906161759 | 73 | 76 | 2.0 | 6.0 | 0.00 | 0.01 | 0.01 | 79 | 1015.3 |
| 20260906161657 | 73 | 51 | 3.0 | 6.0 | 0.00 | 0.01 | 0.01 | 79 | 1015.2 |
| 20260906161457 | 72 | 32 | 2.0 | 6.0 | 0.00 | 0.01 | 0.01 | 81 | 1015.3 |
| 20260906161356 | 72 | 21 | 3.0 | 6.0 | 0.00 | 0.01 | 0.01 | 79 | 1015.3 |
| 20260906161157 | 72 | 26 | 4.0 | 6.0 | 0.00 | 0.01 | 0.01 | 78 | 1015.3 |
| 20260906161057 | 72 | 350 | 4.0 | 6.0 | 0.00 | 0.01 | 0.01 | 78 | 1015.4 |
| 20260906160959 | 72 | 350 | 4.0 | 6.0 | 0.00 | 0.01 | 0.01 | 78 | 1015.3 |
| 20260906160857 | 72 | 330 | 3.0 | 6.0 | 0.00 | 0.01 | 0.01 | 78 | 1015.3 |
| 20260906160757 | 72 | 331 | 3.0 | 10.0 | 0.00 | 0.01 | 0.01 | 77 | 1015.4 |
| 20260906160657 | 72 | 316 | 4.0 | 10.0 | 0.00 | 0.01 | 0.01 | 77 | 1015.3 |
| 20260906160557 | 72 | 323 | 3.0 | 10.0 | 0.00 | 0.01 | 0.01 | 77 | 1015.3 |
| 20260906160458 | 72 | 5 | 3.0 | 10.0 | 0.00 | 0.01 | 0.01 | 78 | 1015.4 |
| 20260906160357 | 72 | 9 | 4.0 | 10.0 | 0.00 | 0.01 | 0.01 | 77 | 1015.3 |
| 20260906160058 | 73 | 351 | 3.0 | 10.0 | 0.00 | 0.01 | 0.01 | 76 | 1015.3 |
| 20260906160001 | 73 | 313 | 4.0 | 10.0 | 0.00 | 0.01 | 0.01 | 76 | 1015.4 |
| 20260906155858 | 73 | 49 | 4.0 | 10.0 | 0.00 | 0.02 | 0.01 | 76 | 1015.5 |
| 20260906155757 | 73 | 28 | 5.0 | 10.0 | 0.00 | 0.02 | 0.01 | 76 | 1015.5 |
| 20260906155658 | 74 | 5 | 2.0 | 10.0 | 0.00 | 0.02 | 0.01 | 76 | 1015.5 |
| 20260906155557 | 74 | 49 | 9.0 | 10.0 | 0.00 | 0.02 | 0.01 | 77 | 1015.4 |
| 20260906155500 | 74 | 346 | 8.0 | 10.0 | 0.00 | 0.02 | 0.01 | 78 | 1015.5 |
| 20260906155358 | 74 | 12 | 7.0 | 10.0 | 0.00 | 0.02 | 0.01 | 78 | 1015.5 |
| 20260906155257 | 74 | 9 | 10.0 | 10.0 | 0.00 | 0.02 | 0.01 | 78 | 1015.5 |
| 20260906155159 | 74 | 46 | 3.0 | 8.0 | 0.00 | 0.02 | 0.01 | 78 | 1015.5 |
| 20260906155057 | 74 | 12 | 3.0 | 8.0 | 0.00 | 0.02 | 0.01 | 77 | 1015.5 |
| 20260906154959 | 74 | 355 | 5.0 | 7.0 | 0.00 | 0.02 | 0.01 | 77 | 1015.4 |
| 20260906154758 | 74 | 347 | 2.0 | 7.0 | 0.00 | 0.02 | 0.01 | 77 | 1015.5 |
| 20260906154658 | 74 | 65 | 3.0 | 7.0 | 0.00 | 0.02 | 0.01 | 77 | 1015.5 |
| 20260906154600 | 74 | 323 | 3.0 | 10.0 | 0.00 | 0.02 | 0.01 | 77 | 1015.5 |
| 20260906154359 | 74 | 28 | 3.0 | 10.0 | 0.00 | 0.02 | 0.01 | 78 | 1015.4 |
| 20260906154258 | 74 | 49 | 4.0 | 10.0 | 0.00 | 0.02 | 0.01 | 79 | 1015.5 |
| 20260906154158 | 74 | 36 | 1.0 | 10.0 | 0.00 | 0.02 | 0.01 | 77 | 1015.5 |
| 20260906154058 | 74 | 62 | 3.0 | 10.0 | 0.00 | 0.02 | 0.01 | 77 | 1015.5 |
| 20260906153857 | 74 | 24 | 5.0 | 10.0 | 0.00 | 0.02 | 0.01 | 77 | 1015.4 |
| 20260906153658 | 74 | 360 | 4.0 | 12.0 | 0.00 | 0.02 | 0.01 | 77 | 1015.4 |
| 20260906153558 | 74 | 331 | 3.0 | 12.0 | 0.00 | 0.02 | 0.01 | 80 | 1015.4 |
| 20260906153459 | 73 | 203 | 1.0 | 12.0 | 0.00 | 0.02 | 0.01 | 78 | 1015.3 |
| 20260906153358 | 73 | 28 | 2.0 | 12.0 | 0.00 | 0.02 | 0.01 | 77 | 1015.4 |
| 20260906153258 | 73 | 88 | 8.0 | 12.0 | 0.00 | 0.02 | 0.01 | 79 | 1015.3 |
| 20260906153158 | 73 | 74 | 4.0 | 12.0 | 0.00 | 0.02 | 0.01 | 79 | 1015.4 |
| 20260906153058 | 73 | 24 | 4.0 | 12.0 | 0.00 | 0.02 | 0.01 | 78 | 1015.4 |
| 20260906152958 | 73 | 175 | 3.0 | 12.0 | 0.00 | 0.02 | 0.01 | 80 | 1015.4 |
| 20260906152858 | 73 | 23 | 4.0 | 12.0 | 0.00 | 0.02 | 0.01 | 78 | 1015.3 |
| 20260906152759 | 73 | 17 | 8.0 | 12.0 | 0.00 | 0.02 | 0.01 | 80 | 1015.3 |
| 20260906152658 | 73 | 66 | 6.0 | 8.0 | 0.00 | 0.02 | 0.01 | 82 | 1015.3 |
| 20260906152558 | 73 | 5 | 4.0 | 8.0 | 0.00 | 0.02 | 0.01 | 80 | 1015.3 |
| 20260906152500 | 73 | 18 | 2.0 | 8.0 | 0.00 | 0.02 | 0.01 | 79 | 1015.4 |
| 20260906152358 | 72 | 58 | 3.0 | 8.0 | 0.00 | 0.02 | 0.01 | 80 | 1015.3 |
| 20260906152258 | 72 | 213 | 2.0 | 8.0 | 0.00 | 0.02 | 0.01 | 81 | 1015.3 |
| 20260906152159 | 72 | 26 | 3.0 | 7.0 | 0.00 | 0.02 | 0.01 | 80 | 1015.3 |
| 20260906152057 | 72 | 26 | 4.0 | 7.0 | 0.00 | 0.02 | 0.01 | 80 | 1015.3 |
| 20260906152000 | 72 | 91 | 3.0 | 7.0 | 0.00 | 0.02 | 0.01 | 80 | 1015.3 |
| 20260906151758 | 72 | 43 | 2.0 | 7.0 | 0.00 | 0.02 | 0.01 | 80 | 1015.3 |
| 20260906151658 | 72 | 350 | 5.0 | 7.0 | 0.00 | 0.02 | 0.01 | 81 | 1015.3 |
| 20260906151558 | 72 | 136 | 2.0 | 7.0 | 0.00 | 0.02 | 0.01 | 81 | 1015.3 |
| 20260906151459 | 72 | 50 | 1.0 | 7.0 | 0.00 | 0.02 | 0.01 | 80 | 1015.3 |
| 20260906151358 | 72 | 50 | 1.0 | 11.0 | 0.00 | 0.02 | 0.01 | 79 | 1015.3 |
| 20260906151259 | 72 | 50 | 2.0 | 11.0 | 0.00 | 0.02 | 0.01 | 80 | 1015.3 |
| 20260906151200 | 72 | 34 | 5.0 | 11.0 | 0.00 | 0.02 | 0.01 | 80 | 1015.4 |
| 20260906151058 | 72 | 12 | 5.0 | 11.0 | 0.00 | 0.02 | 0.01 | 79 | 1015.3 |
| 20260906150959 | 72 | 346 | 4.0 | 11.0 | 0.00 | 0.02 | 0.01 | 80 | 1015.3 |
| 20260906150859 | 72 | 340 | 2.0 | 11.0 | 0.00 | 0.02 | 0.01 | 81 | 1015.3 |
| 20260906150659 | 72 | 72 | 3.0 | 11.0 | 0.00 | 0.02 | 0.01 | 79 | 1015.3 |
| 20260906150559 | 72 | 57 | 4.0 | 11.0 | 0.00 | 0.02 | 0.01 | 79 | 1015.3 |
| 20260906150500 | 72 | 9 | 8.0 | 11.0 | 0.00 | 0.02 | 0.01 | 79 | 1015.3 |
| 20260906150359 | 72 | 28 | 2.0 | 9.0 | 0.00 | 0.02 | 0.01 | 80 | 1015.2 |
| 20260906150159 | 72 | 40 | 4.0 | 9.0 | 0.00 | 0.02 | 0.01 | 81 | 1015.2 |
| 20260906150058 | 72 | 106 | 3.0 | 9.0 | 0.00 | 0.02 | 0.01 | 83 | 1015.2 |
| 20260906150000 | 72 | 105 | 6.0 | 9.0 | 0.00 | 0.02 | 0.01 | 84 | 1015.2 |
| 20260906145859 | 71 | 158 | 2.0 | 9.0 | 0.00 | 0.02 | 0.01 | 84 | 1015.2 |
| 20260906145758 | 71 | 54 | 1.0 | 9.0 | 0.00 | 0.02 | 0.01 | 83 | 1015.2 |
| 20260906145659 | 71 | 86 | 8.0 | 8.0 | 0.00 | 0.02 | 0.01 | 84 | 1015.2 |
| 20260906145558 | 71 | 82 | 3.0 | 6.0 | 0.00 | 0.02 | 0.01 | 84 | 1015.2 |
| 20260906145500 | 71 | 24 | 2.0 | 6.0 | 0.00 | 0.02 | 0.01 | 85 | 1015.2 |
| 20260906145358 | 70 | 13 | 3.0 | 6.0 | 0.00 | 0.02 | 0.01 | 85 | 1015.2 |
| 20260906145258 | 70 | 46 | 3.0 | 6.0 | 0.00 | 0.02 | 0.01 | 85 | 1015.2 |
| 20260906145159 | 70 | 40 | 1.0 | 6.0 | 0.00 | 0.02 | 0.01 | 84 | 1015.1 |
| 20260906145058 | 70 | 42 | 3.0 | 6.0 | 0.00 | 0.02 | 0.01 | 84 | 1015.2 |
| 20260906145003 | 70 | 14 | 7.0 | 7.0 | 0.00 | 0.02 | 0.01 | 86 | 1015.1 |
| 20260906144758 | 70 | 71 | 1.0 | 8.0 | 0.00 | 0.02 | 0.01 | 87 | 1015.1 |
| 20260906144658 | 70 | 71 | 3.0 | 8.0 | 0.00 | 0.02 | 0.01 | 85 | 1015.1 |
| 20260906144557 | 70 | 355 | 1.0 | 9.0 | 0.00 | 0.02 | 0.01 | 84 | 1015.1 |
| 20260906144459 | 70 | 355 | 0.0 | 9.0 | 0.00 | 0.02 | 0.01 | 84 | 1015.0 |
| 20260906144358 | 70 | 355 | 1.0 | 9.0 | 0.00 | 0.02 | 0.01 | 83 | 1015.0 |
| 20260906144259 | 70 | 5 | 0.0 | 9.0 | 0.00 | 0.02 | 0.01 | 84 | 1015.0 |
| 20260906144058 | 70 | 5 | 2.0 | 9.0 | 0.00 | 0.02 | 0.01 | 82 | 1015.1 |
| 20260906144000 | 71 | 16 | 5.0 | 9.0 | 0.00 | 0.02 | 0.01 | 83 | 1015.0 |
| 20260906143857 | 71 | 360 | 3.0 | 9.0 | 0.00 | 0.02 | 0.01 | 83 | 1015.0 |
| 20260906143758 | 71 | 355 | 3.0 | 9.0 | 0.00 | 0.02 | 0.01 | 82 | 1015.0 |
| 20260906143658 | 71 | 84 | 2.0 | 6.0 | 0.00 | 0.02 | 0.01 | 83 | 1015.1 |
| 20260906143558 | 71 | 323 | 2.0 | 8.0 | 0.00 | 0.02 | 0.01 | 83 | 1015.1 |
| 20260906143500 | 71 | 360 | 4.0 | 8.0 | 0.00 | 0.02 | 0.01 | 83 | 1015.0 |
| 20260906143358 | 71 | 73 | 3.0 | 8.0 | 0.00 | 0.02 | 0.01 | 83 | 1015.1 |
| 20260906143158 | 71 | 360 | 3.0 | 8.0 | 0.00 | 0.02 | 0.01 | 82 | 1015.1 |
| 20260906143058 | 71 | 336 | 1.0 | 9.0 | 0.00 | 0.02 | 0.01 | 82 | 1015.0 |
| 20260906142959 | 71 | 308 | 0.0 | 9.0 | 0.00 | 0.02 | 0.01 | 82 | 1015.0 |
| 20260906142859 | 71 | 75 | 3.0 | 9.0 | 0.00 | 0.02 | 0.01 | 82 | 1015.0 |
| 20260906142758 | 71 | 355 | 1.0 | 10.0 | 0.00 | 0.02 | 0.01 | 82 | 1015.0 |
| 20260906142658 | 71 | 315 | 4.0 | 10.0 | 0.00 | 0.02 | 0.01 | 83 | 1015.0 |
| 20260906142558 | 71 | 348 | 4.0 | 10.0 | 0.00 | 0.02 | 0.01 | 83 | 1014.9 |
| 20260906142459 | 71 | 5 | 1.0 | 10.0 | 0.00 | 0.02 | 0.01 | 83 | 1014.9 |
| 20260906142258 | 71 | 324 | 2.0 | 10.0 | 0.00 | 0.02 | 0.01 | 82 | 1014.9 |
| 20260906142158 | 71 | 338 | 2.0 | 10.0 | 0.00 | 0.02 | 0.01 | 82 | 1014.8 |
| 20260906142058 | 71 | 325 | 3.0 | 10.0 | 0.00 | 0.02 | 0.01 | 82 | 1015.0 |
| 20260906141959 | 71 | 355 | 1.0 | 10.0 | 0.00 | 0.02 | 0.01 | 83 | 1014.9 |
| 20260906141858 | 71 | 5 | 4.0 | 10.0 | 0.00 | 0.02 | 0.01 | 83 | 1014.9 |
| 20260906141758 | 71 | 43 | 9.0 | 9.0 | 0.00 | 0.02 | 0.01 | 82 | 1014.8 |
| 20260906141658 | 71 | 75 | 4.0 | 9.0 | 0.00 | 0.02 | 0.01 | 82 | 1014.9 |
| 20260906141557 | 71 | 24 | 5.0 | 9.0 | 0.00 | 0.02 | 0.01 | 83 | 1014.8 |
| 20260906141459 | 71 | 335 | 2.0 | 9.0 | 0.00 | 0.02 | 0.01 | 82 | 1014.9 |
| 20260906141358 | 71 | 336 | 2.0 | 9.0 | 0.00 | 0.02 | 0.01 | 83 | 1015.0 |
| 20260906141258 | 71 | 348 | 5.0 | 9.0 | 0.00 | 0.02 | 0.01 | 82 | 1014.9 |
| 20260906141059 | 71 | 355 | 2.0 | 9.0 | 0.00 | 0.02 | 0.01 | 84 | 1014.9 |
| 20260906140959 | 71 | 9 | 9.0 | 9.0 | 0.00 | 0.02 | 0.01 | 84 | 1014.9 |
| 20260906140858 | 71 | 71 | 3.0 | 7.0 | 0.00 | 0.02 | 0.01 | 84 | 1014.9 |
| 20260906140759 | 71 | 68 | 3.0 | 5.0 | 0.00 | 0.02 | 0.01 | 84 | 1014.8 |
| 20260906140658 | 71 | 56 | 3.0 | 5.0 | 0.00 | 0.02 | 0.01 | 85 | 1014.8 |
| 20260906140558 | 71 | 90 | 1.0 | 5.0 | 0.00 | 0.02 | 0.01 | 86 | 1014.8 |
| 20260906140459 | 71 | 51 | 2.0 | 5.0 | 0.00 | 0.02 | 0.01 | 86 | 1014.8 |
| 20260906140358 | 71 | 42 | 2.0 | 5.0 | 0.00 | 0.02 | 0.01 | 85 | 1014.9 |
| 20260906140158 | 70 | 86 | 1.0 | 5.0 | 0.00 | 0.02 | 0.01 | 85 | 1014.8 |
| 20260906135857 | 70 | 279 | 1.0 | 4.0 | 0.00 | 0.02 | 0.01 | 85 | 1014.8 |
| 20260906135759 | 70 | 338 | 1.0 | 5.0 | 0.00 | 0.02 | 0.01 | 85 | 1014.9 |
| 20260906135658 | 70 | 338 | 1.0 | 5.0 | 0.00 | 0.02 | 0.01 | 85 | 1014.8 |
| 20260906135558 | 70 | 338 | 2.0 | 5.0 | 0.00 | 0.02 | 0.01 | 86 | 1014.8 |
| 20260906135500 | 70 | 63 | 1.0 | 5.0 | 0.00 | 0.02 | 0.01 | 86 | 1014.8 |
| 20260906135359 | 70 | 111 | 1.0 | 5.0 | 0.00 | 0.02 | 0.01 | 86 | 1014.9 |
| 20260906135257 | 70 | 111 | 0.0 | 5.0 | 0.00 | 0.02 | 0.01 | 86 | 1014.8 |
| 20260906134959 | 70 | 44 | 1.0 | 6.0 | 0.00 | 0.02 | 0.01 | 85 | 1014.8 |
| 20260906134858 | 70 | 47 | 2.0 | 6.0 | 0.00 | 0.02 | 0.01 | 85 | 1014.8 |
| 20260906134758 | 70 | 5 | 4.0 | 6.0 | 0.00 | 0.02 | 0.01 | 85 | 1014.8 |
| 20260906134659 | 70 | 15 | 0.0 | 6.0 | 0.00 | 0.02 | 0.01 | 86 | 1014.8 |
| 20260906134557 | 70 | 15 | 0.0 | 6.0 | 0.00 | 0.02 | 0.01 | 85 | 1014.7 |
| 20260906134500 | 70 | 15 | 0.0 | 6.0 | 0.00 | 0.02 | 0.01 | 85 | 1014.8 |
| 20260906134358 | 70 | 15 | 0.0 | 8.0 | 0.00 | 0.02 | 0.01 | 84 | 1014.7 |
| 20260906134258 | 70 | 15 | 1.0 | 8.0 | 0.00 | 0.02 | 0.01 | 85 | 1014.7 |
| 20260906134159 | 70 | 360 | 5.0 | 8.0 | 0.00 | 0.02 | 0.01 | 85 | 1014.7 |
| 20260906134058 | 70 | 9 | 3.0 | 8.0 | 0.00 | 0.02 | 0.01 | 84 | 1014.7 |
| 20260906133858 | 70 | 360 | 0.0 | 8.0 | 0.00 | 0.02 | 0.01 | 85 | 1014.7 |
| 20260906133758 | 70 | 35 | 1.0 | 8.0 | 0.00 | 0.02 | 0.01 | 85 | 1014.7 |
| 20260906133659 | 70 | 35 | 0.0 | 8.0 | 0.00 | 0.02 | 0.01 | 85 | 1014.7 |
| 20260906133558 | 70 | 38 | 0.0 | 8.0 | 0.00 | 0.02 | 0.01 | 84 | 1014.7 |
| 20260906133459 | 70 | 15 | 8.0 | 8.0 | 0.00 | 0.02 | 0.01 | 85 | 1014.7 |
| 20260906133358 | 70 | 74 | 5.0 | 6.0 | 0.00 | 0.02 | 0.01 | 84 | 1014.7 |
| 20260906133259 | 70 | 18 | 0.0 | 6.0 | 0.00 | 0.02 | 0.01 | 85 | 1014.7 |
| 20260906133159 | 70 | 17 | 1.0 | 8.0 | 0.00 | 0.02 | 0.01 | 85 | 1014.7 |
| 20260906133058 | 70 | 24 | 5.0 | 8.0 | 0.00 | 0.02 | 0.01 | 85 | 1014.7 |
| 20260906132958 | 70 | 19 | 4.0 | 8.0 | 0.00 | 0.02 | 0.01 | 85 | 1014.6 |
| 20260906132758 | 70 | 13 | 3.0 | 8.0 | 0.00 | 0.02 | 0.01 | 86 | 1014.6 |
| 20260906132558 | 70 | 57 | 2.0 | 8.0 | 0.00 | 0.02 | 0.01 | 85 | 1014.6 |
| 20260906132501 | 70 | 107 | 3.0 | 8.0 | 0.00 | 0.02 | 0.01 | 84 | 1014.6 |
| 20260906132358 | 70 | 80 | 3.0 | 8.0 | 0.00 | 0.02 | 0.01 | 85 | 1014.6 |
| 20260906132259 | 70 | 14 | 7.0 | 7.0 | 0.00 | 0.02 | 0.01 | 86 | 1014.6 |
| 20260906132158 | 70 | 355 | 1.0 | 2.0 | 0.00 | 0.02 | 0.01 | 86 | 1014.6 |
| 20260906132058 | 70 | 355 | 0.0 | 2.0 | 0.00 | 0.02 | 0.01 | 86 | 1014.6 |
| 20260906131959 | 70 | 355 | 0.0 | 2.0 | 0.00 | 0.02 | 0.01 | 87 | 1014.5 |
| 20260906131859 | 70 | 355 | 0.0 | 2.0 | 0.00 | 0.02 | 0.01 | 87 | 1014.5 |
| 20260906131800 | 70 | 355 | 0.0 | 5.0 | 0.00 | 0.02 | 0.01 | 86 | 1014.5 |
| 20260906131658 | 70 | 355 | 1.0 | 9.0 | 0.00 | 0.02 | 0.01 | 87 | 1014.6 |
| 20260906131559 | 69 | 355 | 0.0 | 9.0 | 0.00 | 0.02 | 0.01 | 88 | 1014.5 |
| 20260906131501 | 69 | 355 | 0.0 | 9.0 | 0.00 | 0.02 | 0.01 | 88 | 1014.5 |
| 20260906131358 | 69 | 355 | 0.0 | 9.0 | 0.00 | 0.02 | 0.01 | 88 | 1014.5 |
| 20260906131258 | 69 | 355 | 0.0 | 9.0 | 0.00 | 0.02 | 0.01 | 88 | 1014.5 |
| 20260906131158 | 69 | 355 | 0.0 | 9.0 | 0.00 | 0.02 | 0.01 | 88 | 1014.5 |
| 20260906131058 | 69 | 355 | 0.0 | 9.0 | 0.00 | 0.02 | 0.01 | 86 | 1014.5 |
| 20260906131000 | 69 | 355 | 2.0 | 9.0 | 0.00 | 0.02 | 0.01 | 87 | 1014.5 |
| 20260906130859 | 69 | 11 | 3.0 | 9.0 | 0.00 | 0.02 | 0.01 | 86 | 1014.6 |
| 20260906130759 | 69 | 40 | 4.0 | 9.0 | 0.00 | 0.02 | 0.01 | 87 | 1014.6 |
| 20260906130658 | 69 | 20 | 0.0 | 6.0 | 0.00 | 0.02 | 0.01 | 87 | 1014.6 |
| 20260906130459 | 69 | 24 | 4.0 | 7.0 | 0.00 | 0.02 | 0.01 | 88 | 1014.6 |
| 20260906130359 | 69 | 93 | 3.0 | 3.0 | 0.00 | 0.02 | 0.01 | 88 | 1014.6 |
| 20260906130158 | 68 | 139 | 0.0 | 3.0 | 0.00 | 0.02 | 0.01 | 88 | 1014.6 |
| 20260906130059 | 68 | 139 | 2.0 | 3.0 | 0.00 | 0.02 | 0.01 | 89 | 1014.7 |
| 20260906130000 | 68 | 51 | 2.0 | 6.0 | 0.00 | 0.02 | 0.01 | 90 | 1014.7 |
| 20260906125757 | 68 | 48 | 0.0 | 6.0 | 0.00 | 0.02 | 0.01 | 90 | 1014.6 |
| 20260906125658 | 68 | 48 | 1.0 | 6.0 | 0.00 | 0.02 | 0.01 | 90 | 1014.6 |
| 20260906125558 | 68 | 49 | 0.0 | 6.0 | 0.00 | 0.02 | 0.01 | 89 | 1014.6 |
| 20260906125359 | 67 | 49 | 0.0 | 6.0 | 0.00 | 0.02 | 0.01 | 89 | 1014.6 |
| 20260906125258 | 67 | 49 | 0.0 | 6.0 | 0.00 | 0.02 | 0.01 | 90 | 1014.6 |
| 20260906125157 | 67 | 49 | 1.0 | 6.0 | 0.00 | 0.02 | 0.01 | 90 | 1014.6 |
| 20260906125058 | 67 | 42 | 1.0 | 3.0 | 0.00 | 0.02 | 0.01 | 91 | 1014.6 |
| 20260906124958 | 67 | 149 | 0.0 | 3.0 | 0.00 | 0.02 | 0.01 | 91 | 1014.5 |
| 20260906124857 | 67 | 149 | 1.0 | 3.0 | 0.00 | 0.02 | 0.01 | 91 | 1014.6 |
| 20260906124757 | 67 | 149 | 0.0 | 4.0 | 0.00 | 0.02 | 0.01 | 91 | 1014.6 |
| 20260906124657 | 67 | 149 | 1.0 | 4.0 | 0.00 | 0.02 | 0.01 | 92 | 1014.5 |
| 20260906124559 | 66 | 99 | 0.0 | 4.0 | 0.00 | 0.02 | 0.01 | 92 | 1014.5 |
| 20260906124501 | 66 | 99 | 0.0 | 4.0 | 0.00 | 0.02 | 0.01 | 92 | 1014.5 |
| 20260906124257 | 66 | 327 | 1.0 | 4.0 | 0.00 | 0.02 | 0.01 | 92 | 1014.5 |
| 20260906124157 | 66 | 313 | 1.0 | 4.0 | 0.00 | 0.02 | 0.01 | 92 | 1014.5 |
| 20260906124057 | 66 | 17 | 1.0 | 4.0 | 0.00 | 0.02 | 0.01 | 92 | 1014.5 |
| 20260906123958 | 66 | 17 | 2.0 | 4.0 | 0.00 | 0.02 | 0.01 | 92 | 1014.5 |
| 20260906123857 | 65 | 17 | 2.0 | 4.0 | 0.00 | 0.02 | 0.01 | 92 | 1014.5 |
| 20260906123758 | 65 | 103 | 3.0 | 4.0 | 0.00 | 0.02 | 0.01 | 92 | 1014.4 |
| 20260906123657 | 65 | 145 | 1.0 | 4.0 | 0.00 | 0.02 | 0.01 | 92 | 1014.4 |
| 20260906123557 | 65 | 99 | 2.0 | 4.0 | 0.00 | 0.02 | 0.01 | 92 | 1014.5 |
| 20260906123357 | 65 | 59 | 0.0 | 3.0 | 0.00 | 0.02 | 0.01 | 93 | 1014.4 |
| 20260906123258 | 65 | 76 | 1.0 | 3.0 | 0.00 | 0.02 | 0.01 | 94 | 1014.4 |
| 20260906123158 | 65 | 23 | 0.0 | 3.0 | 0.00 | 0.02 | 0.01 | 94 | 1014.4 |
| 20260906123058 | 65 | 23 | 0.0 | 4.0 | 0.00 | 0.02 | 0.01 | 94 | 1014.4 |
| 20260906122957 | 65 | 23 | 1.0 | 4.0 | 0.00 | 0.02 | 0.01 | 94 | 1014.5 |
| 20260906122857 | 65 | 23 | 1.0 | 4.0 | 0.00 | 0.02 | 0.01 | 94 | 1014.4 |
| 20260906122757 | 65 | 23 | 0.0 | 4.0 | 0.00 | 0.02 | 0.01 | 94 | 1014.5 |
| 20260906122658 | 65 | 22 | 2.0 | 4.0 | 0.00 | 0.02 | 0.01 | 94 | 1014.5 |
| 20260906122557 | 65 | 12 | 1.0 | 5.0 | 0.00 | 0.02 | 0.01 | 94 | 1014.5 |
| 20260906122458 | 64 | 12 | 1.0 | 5.0 | 0.00 | 0.02 | 0.01 | 94 | 1014.5 |
| 20260906122258 | 64 | 149 | 1.0 | 5.0 | 0.00 | 0.02 | 0.01 | 94 | 1014.5 |
| 20260906122158 | 64 | 65 | 1.0 | 5.0 | 0.00 | 0.02 | 0.01 | 94 | 1014.5 |
| 20260906122057 | 64 | 307 | 2.0 | 5.0 | 0.00 | 0.02 | 0.01 | 94 | 1014.5 |
| 20260906121959 | 64 | 301 | 1.0 | 5.0 | 0.00 | 0.02 | 0.01 | 94 | 1014.5 |
| 20260906121857 | 64 | 301 | 2.0 | 5.0 | 0.00 | 0.02 | 0.01 | 95 | 1014.5 |
| 20260906121756 | 64 | 300 | 1.0 | 5.0 | 0.00 | 0.02 | 0.01 | 95 | 1014.5 |
| 20260906121658 | 64 | 300 | 0.0 | 5.0 | 0.00 | 0.02 | 0.01 | 95 | 1014.4 |
| 20260906121557 | 64 | 317 | 3.0 | 3.0 | 0.00 | 0.02 | 0.01 | 95 | 1014.4 |
| 20260906121357 | 64 | 136 | 1.0 | 2.0 | 0.00 | 0.02 | 0.01 | 95 | 1014.4 |
| 20260906121258 | 63 | 136 | 1.0 | 2.0 | 0.00 | 0.02 | 0.01 | 95 | 1014.4 |
| 20260906121157 | 63 | 136 | 1.0 | 3.0 | 0.00 | 0.02 | 0.01 | 95 | 1014.4 |
| 20260906121057 | 63 | 136 | 0.0 | 3.0 | 0.00 | 0.02 | 0.01 | 95 | 1014.4 |
| 20260906120857 | 63 | 136 | 0.0 | 3.0 | 0.00 | 0.02 | 0.01 | 95 | 1014.3 |
| 20260906120757 | 63 | 136 | 0.0 | 3.0 | 0.00 | 0.02 | 0.01 | 95 | 1014.3 |
| 20260906120657 | 63 | 136 | 0.0 | 3.0 | 0.00 | 0.02 | 0.01 | 95 | 1014.3 |
| 20260906120557 | 63 | 136 | 0.0 | 3.0 | 0.00 | 0.02 | 0.01 | 95 | 1014.3 |
| 20260906120357 | 63 | 136 | 2.0 | 3.0 | 0.00 | 0.02 | 0.01 | 95 | 1014.3 |
| 20260906120257 | 63 | 136 | 2.0 | 3.0 | 0.00 | 0.02 | 0.01 | 95 | 1014.3 |
| 20260906120158 | 63 | 137 | 2.0 | 3.0 | 0.00 | 0.02 | 0.01 | 95 | 1014.3 |
| 20260906120057 | 63 | 72 | 1.0 | 1.0 | 0.00 | 0.02 | 0.01 | 96 | 1014.3 |
| 20260906115959 | 63 | 72 | 0.0 | 1.0 | 0.00 | 0.02 | 0.01 | 96 | 1014.3 |
| 20260906115856 | 63 | 72 | 0.0 | 2.0 | 0.00 | 0.02 | 0.01 | 95 | 1014.3 |
| 20260906115656 | 63 | 72 | 0.0 | 2.0 | 0.00 | 0.02 | 0.01 | 95 | 1014.2 |
| 20260906115557 | 63 | 72 | 0.0 | 2.0 | 0.00 | 0.02 | 0.01 | 95 | 1014.2 |
| 20260906115459 | 63 | 72 | 0.0 | 2.0 | 0.00 | 0.02 | 0.01 | 95 | 1014.2 |
| 20260906115357 | 63 | 72 | 0.0 | 2.0 | 0.00 | 0.02 | 0.01 | 95 | 1014.2 |
| 20260906115258 | 63 | 72 | 0.0 | 2.0 | 0.00 | 0.02 | 0.01 | 95 | 1014.2 |
| 20260906115158 | 63 | 72 | 0.0 | 2.0 | 0.00 | 0.02 | 0.01 | 95 | 1014.2 |
| 20260906115058 | 63 | 72 | 0.0 | 2.0 | 0.00 | 0.02 | 0.01 | 95 | 1014.2 |
| 20260906114959 | 63 | 72 | 1.0 | 2.0 | 0.00 | 0.02 | 0.01 | 95 | 1014.2 |
| 20260906114859 | 63 | 86 | 2.0 | 2.0 | 0.00 | 0.02 | 0.01 | 95 | 1014.2 |
| 20260906114658 | 63 | 90 | 0.0 | 1.0 | 0.00 | 0.02 | 0.01 | 96 | 1014.1 |
| 20260906114557 | 63 | 90 | 0.0 | 1.0 | 0.00 | 0.02 | 0.01 | 96 | 1014.0 |
| 20260906114458 | 63 | 90 | 0.0 | 1.0 | 0.00 | 0.02 | 0.01 | 96 | 1014.0 |
| 20260906114358 | 63 | 90 | 0.0 | 1.0 | 0.00 | 0.02 | 0.01 | 96 | 1013.9 |
| 20260906114257 | 63 | 90 | 0.0 | 1.0 | 0.00 | 0.02 | 0.01 | 96 | 1013.9 |
| 20260906114156 | 63 | 90 | 0.0 | 1.0 | 0.00 | 0.02 | 0.01 | 96 | 1013.9 |
| 20260906114056 | 63 | 90 | 0.0 | 1.0 | 0.00 | 0.02 | 0.01 | 95 | 1014.0 |
| 20260906113958 | 63 | 90 | 0.0 | 1.0 | 0.00 | 0.02 | 0.01 | 95 | 1014.0 |
| 20260906113756 | 63 | 90 | 0.0 | 1.0 | 0.00 | 0.02 | 0.01 | 95 | 1014.0 |
| 20260906113657 | 63 | 90 | 1.0 | 1.0 | 0.00 | 0.02 | 0.01 | 95 | 1014.0 |
| 20260906113557 | 63 | 90 | 0.0 | 1.0 | 0.00 | 0.02 | 0.01 | 95 | 1014.0 |
| 20260906113459 | 62 | 90 | 0.0 | 1.0 | 0.00 | 0.02 | 0.01 | 95 | 1014.0 |
| 20260906113357 | 62 | 90 | 0.0 | 1.0 | 0.00 | 0.02 | 0.01 | 95 | 1013.9 |
| 20260906113158 | 62 | 90 | 0.0 | 1.0 | 0.00 | 0.02 | 0.01 | 95 | 1014.0 |
| 20260906112958 | 62 | 90 | 0.0 | 3.0 | 0.00 | 0.02 | 0.01 | 96 | 1013.9 |
| 20260906112556 | 62 | 91 | 0.0 | 3.0 | 0.00 | 0.02 | 0.01 | 95 | 1013.9 |
| 20260906112457 | 62 | 91 | 0.0 | 3.0 | 0.00 | 0.02 | 0.01 | 95 | 1013.9 |
| 20260906112256 | 62 | 91 | 0.0 | 4.0 | 0.00 | 0.02 | 0.01 | 95 | 1013.8 |
| 20260906112158 | 62 | 43 | 0.0 | 4.0 | 0.00 | 0.02 | 0.01 | 95 | 1013.8 |
| 20260906111958 | 62 | 87 | 0.0 | 4.0 | 0.00 | 0.02 | 0.01 | 95 | 1013.8 |
| 20260906111857 | 62 | 87 | 0.0 | 4.0 | 0.00 | 0.02 | 0.01 | 95 | 1013.8 |
| 20260906111758 | 62 | 87 | 0.0 | 4.0 | 0.00 | 0.02 | 0.01 | 95 | 1013.7 |
| 20260906111557 | 62 | 87 | 1.0 | 4.0 | 0.00 | 0.02 | 0.01 | 95 | 1013.7 |
| 20260906111459 | 62 | 84 | 2.0 | 4.0 | 0.00 | 0.02 | 0.01 | 95 | 1013.6 |
| 20260906111357 | 62 | 115 | 0.0 | 6.0 | 0.00 | 0.02 | 0.01 | 95 | 1013.6 |
| 20260906111257 | 62 | 115 | 0.0 | 6.0 | 0.00 | 0.02 | 0.01 | 95 | 1013.6 |
| 20260906111157 | 62 | 115 | 0.0 | 6.0 | 0.00 | 0.02 | 0.01 | 95 | 1013.6 |
| 20260906111057 | 62 | 115 | 0.0 | 6.0 | 0.00 | 0.02 | 0.01 | 95 | 1013.6 |
| 20260906110958 | 62 | 115 | 1.0 | 6.0 | 0.00 | 0.02 | 0.01 | 95 | 1013.5 |
| 20260906110858 | 62 | 115 | 1.0 | 6.0 | 0.00 | 0.02 | 0.01 | 95 | 1013.5 |
| 20260906110757 | 62 | 115 | 0.0 | 6.0 | 0.00 | 0.02 | 0.01 | 95 | 1013.5 |
| 20260906110658 | 62 | 115 | 1.0 | 6.0 | 0.00 | 0.02 | 0.01 | 95 | 1013.5 |
| 20260906110500 | 62 | 57 | 2.0 | 6.0 | 0.00 | 0.02 | 0.01 | 95 | 1013.5 |
| 20260906110258 | 62 | 262 | 1.0 | 3.0 | 0.00 | 0.02 | 0.01 | 95 | 1013.5 |
| 20260906110157 | 62 | 262 | 0.0 | 3.0 | 0.00 | 0.02 | 0.01 | 95 | 1013.5 |
| 20260906110001 | 62 | 262 | 1.0 | 3.0 | 0.00 | 0.02 | 0.01 | 95 | 1013.4 |
| 20260906105858 | 62 | 313 | 0.0 | 8.0 | 0.00 | 0.02 | 0.01 | 95 | 1013.4 |
| 20260906105800 | 62 | 313 | 0.0 | 8.0 | 0.00 | 0.02 | 0.01 | 95 | 1013.3 |
| 20260906105658 | 62 | 313 | 0.0 | 8.0 | 0.00 | 0.02 | 0.01 | 95 | 1013.3 |
| 20260906105558 | 62 | 38 | 2.0 | 8.0 | 0.00 | 0.02 | 0.01 | 95 | 1013.4 |
| 20260906105459 | 62 | 94 | 0.0 | 8.0 | 0.00 | 0.02 | 0.01 | 95 | 1013.4 |
| 20260906105358 | 62 | 93 | 0.0 | 8.0 | 0.00 | 0.02 | 0.01 | 95 | 1013.3 |
| 20260906105158 | 62 | 73 | 0.0 | 8.0 | 0.00 | 0.02 | 0.01 | 94 | 1013.3 |
| 20260906105059 | 62 | 73 | 1.0 | 8.0 | 0.00 | 0.02 | 0.01 | 94 | 1013.3 |
| 20260906104959 | 62 | 35 | 0.0 | 8.0 | 0.00 | 0.02 | 0.01 | 94 | 1013.3 |
| 20260906104858 | 62 | 31 | 5.0 | 7.0 | 0.00 | 0.02 | 0.01 | 94 | 1013.2 |
| 20260906104759 | 62 | 265 | 2.0 | 4.0 | 0.00 | 0.02 | 0.01 | 94 | 1013.3 |
| 20260906104657 | 62 | 245 | 1.0 | 5.0 | 0.00 | 0.02 | 0.01 | 94 | 1013.3 |
| 20260906104557 | 62 | 280 | 3.0 | 5.0 | 0.00 | 0.02 | 0.01 | 94 | 1013.3 |
| 20260906104500 | 62 | 28 | 0.0 | 5.0 | 0.00 | 0.02 | 0.01 | 94 | 1013.3 |
| 20260906104358 | 62 | 286 | 1.0 | 5.0 | 0.00 | 0.02 | 0.01 | 94 | 1013.3 |
| 20260906104258 | 62 | 303 | 1.0 | 5.0 | 0.00 | 0.02 | 0.01 | 94 | 1013.3 |
| 20260906104158 | 62 | 311 | 2.0 | 5.0 | 0.00 | 0.02 | 0.01 | 94 | 1013.3 |
| 20260906104059 | 62 | 311 | 3.0 | 5.0 | 0.00 | 0.02 | 0.01 | 94 | 1013.3 |
| 20260906104000 | 62 | 312 | 1.0 | 5.0 | 0.00 | 0.02 | 0.01 | 94 | 1013.2 |
| 20260906103858 | 62 | 12 | 2.0 | 5.0 | 0.00 | 0.02 | 0.01 | 94 | 1013.3 |
| 20260906103758 | 63 | 5 | 2.0 | 5.0 | 0.00 | 0.02 | 0.01 | 94 | 1013.2 |
| 20260906103700 | 63 | 308 | 3.0 | 6.0 | 0.00 | 0.02 | 0.01 | 94 | 1013.3 |
| 20260906103556 | 63 | 34 | 2.0 | 6.0 | 0.00 | 0.02 | 0.01 | 94 | 1013.2 |
| 20260906103458 | 63 | 312 | 3.0 | 6.0 | 0.00 | 0.02 | 0.01 | 94 | 1013.2 |
| 20260906103357 | 63 | 303 | 3.0 | 6.0 | 0.00 | 0.02 | 0.01 | 94 | 1013.3 |
| 20260906103259 | 63 | 302 | 1.0 | 6.0 | 0.00 | 0.02 | 0.01 | 94 | 1013.2 |
| 20260906103158 | 63 | 321 | 2.0 | 6.0 | 0.00 | 0.02 | 0.01 | 94 | 1013.2 |
| 20260906103057 | 63 | 13 | 2.0 | 6.0 | 0.00 | 0.02 | 0.01 | 94 | 1013.3 |
| 20260906102959 | 63 | 5 | 1.0 | 6.0 | 0.00 | 0.02 | 0.01 | 94 | 1013.2 |
| 20260906102859 | 63 | 11 | 3.0 | 6.0 | 0.00 | 0.02 | 0.01 | 94 | 1013.2 |
| 20260906102759 | 63 | 11 | 4.0 | 6.0 | 0.00 | 0.02 | 0.01 | 93 | 1013.2 |
| 20260906102557 | 63 | 17 | 0.0 | 4.0 | 0.00 | 0.02 | 0.01 | 93 | 1013.2 |
| 20260906102459 | 63 | 14 | 3.0 | 4.0 | 0.00 | 0.02 | 0.01 | 93 | 1013.1 |
| 20260906102358 | 63 | 325 | 2.0 | 4.0 | 0.00 | 0.02 | 0.01 | 93 | 1013.1 |
| 20260906102158 | 63 | 85 | 0.0 | 9.0 | 0.00 | 0.02 | 0.01 | 94 | 1013.1 |
| 20260906102058 | 63 | 351 | 1.0 | 9.0 | 0.00 | 0.02 | 0.01 | 94 | 1013.1 |
| 20260906101959 | 63 | 339 | 0.0 | 9.0 | 0.00 | 0.02 | 0.01 | 94 | 1013.1 |
| 20260906101858 | 63 | 340 | 1.0 | 9.0 | 0.00 | 0.02 | 0.01 | 93 | 1013.1 |
| 20260906101758 | 63 | 335 | 1.0 | 9.0 | 0.00 | 0.02 | 0.01 | 93 | 1013.1 |
| 20260906101659 | 63 | 335 | 0.0 | 9.0 | 0.00 | 0.02 | 0.01 | 93 | 1013.1 |
| 20260906101558 | 63 | 335 | 3.0 | 9.0 | 0.00 | 0.02 | 0.01 | 93 | 1013.1 |
| 20260906101459 | 63 | 342 | 3.0 | 9.0 | 0.00 | 0.02 | 0.01 | 93 | 1013.1 |
| 20260906101359 | 63 | 5 | 8.0 | 9.0 | 0.00 | 0.02 | 0.01 | 93 | 1013.1 |
| 20260906101258 | 63 | 19 | 0.0 | 8.0 | 0.00 | 0.02 | 0.01 | 93 | 1013.1 |
| 20260906101159 | 63 | 29 | 0.0 | 8.0 | 0.00 | 0.02 | 0.01 | 93 | 1013.1 |
| 20260906101058 | 63 | 306 | 1.0 | 8.0 | 0.00 | 0.02 | 0.01 | 93 | 1013.1 |
| 20260906101000 | 63 | 56 | 1.0 | 8.0 | 0.00 | 0.02 | 0.01 | 93 | 1013.1 |
| 20260906100859 | 63 | 329 | 2.0 | 8.0 | 0.00 | 0.02 | 0.01 | 93 | 1013.1 |
| 20260906100558 | 63 | 348 | 2.0 | 8.0 | 0.00 | 0.02 | 0.01 | 93 | 1013.1 |
| 20260906100500 | 63 | 309 | 0.0 | 8.0 | 0.00 | 0.02 | 0.01 | 93 | 1013.1 |
| 20260906100357 | 63 | 346 | 2.0 | 8.0 | 0.00 | 0.02 | 0.01 | 93 | 1013.1 |
| 20260906100158 | 63 | 355 | 1.0 | 8.0 | 0.00 | 0.02 | 0.01 | 93 | 1013.1 |
| 20260906100000 | 63 | 309 | 0.0 | 5.0 | 0.00 | 0.02 | 0.01 | 93 | 1013.0 |
| 20260906095901 | 63 | 309 | 1.0 | 5.0 | 0.00 | 0.03 | 0.01 | 93 | 1013.0 |
| 20260906095657 | 63 | 320 | 3.0 | 4.0 | 0.00 | 0.03 | 0.01 | 93 | 1012.9 |
| 20260906095557 | 63 | 344 | 1.0 | 4.0 | 0.00 | 0.03 | 0.01 | 93 | 1012.9 |
| 20260906095458 | 63 | 350 | 1.0 | 4.0 | 0.00 | 0.03 | 0.01 | 93 | 1013.0 |
| 20260906095358 | 63 | 23 | 1.0 | 4.0 | 0.00 | 0.03 | 0.01 | 93 | 1012.9 |
| 20260906095256 | 63 | 23 | 1.0 | 4.0 | 0.00 | 0.03 | 0.01 | 93 | 1012.8 |
| 20260906094857 | 63 | 324 | 1.0 | 4.0 | 0.00 | 0.03 | 0.01 | 93 | 1012.8 |
| 20260906094757 | 63 | 317 | 3.0 | 5.0 | 0.00 | 0.03 | 0.01 | 93 | 1012.8 |
| 20260906094557 | 63 | 344 | 2.0 | 5.0 | 0.00 | 0.03 | 0.01 | 93 | 1012.8 |
| 20260906094458 | 63 | 355 | 1.0 | 5.0 | 0.00 | 0.03 | 0.01 | 93 | 1012.8 |
| 20260906094358 | 63 | 355 | 1.0 | 5.0 | 0.00 | 0.03 | 0.01 | 93 | 1012.8 |
| 20260906094258 | 63 | 310 | 3.0 | 5.0 | 0.00 | 0.03 | 0.01 | 93 | 1012.9 |
| 20260906094157 | 63 | 10 | 0.0 | 5.0 | 0.00 | 0.03 | 0.01 | 93 | 1012.8 |
| 20260906094058 | 63 | 13 | 1.0 | 5.0 | 0.00 | 0.03 | 0.01 | 93 | 1012.8 |
| 20260906093958 | 63 | 13 | 1.0 | 5.0 | 0.00 | 0.03 | 0.01 | 93 | 1012.8 |
| 20260906093756 | 63 | 5 | 2.0 | 5.0 | 0.01 | 0.03 | 0.01 | 93 | 1012.7 |
| 20260906093657 | 63 | 5 | 0.0 | 5.0 | 0.01 | 0.03 | 0.01 | 93 | 1012.7 |
| 20260906093557 | 63 | 360 | 3.0 | 5.0 | 0.01 | 0.03 | 0.01 | 93 | 1012.7 |
| 20260906093458 | 63 | 5 | 0.0 | 4.0 | 0.01 | 0.03 | 0.01 | 93 | 1012.7 |
| 20260906093357 | 63 | 5 | 3.0 | 5.0 | 0.01 | 0.03 | 0.01 | 93 | 1012.7 |
| 20260906093257 | 63 | 321 | 0.0 | 5.0 | 0.01 | 0.03 | 0.01 | 93 | 1012.7 |
| 20260906093157 | 63 | 22 | 1.0 | 5.0 | 0.01 | 0.03 | 0.01 | 93 | 1012.7 |
| 20260906093059 | 63 | 22 | 4.0 | 5.0 | 0.01 | 0.03 | 0.01 | 93 | 1012.7 |
| 20260906092958 | 63 | 319 | 0.0 | 5.0 | 0.01 | 0.03 | 0.01 | 93 | 1012.7 |
| 20260906092858 | 63 | 345 | 3.0 | 5.0 | 0.01 | 0.03 | 0.01 | 93 | 1012.8 |
| 20260906092758 | 63 | 196 | 1.0 | 5.0 | 0.01 | 0.03 | 0.01 | 93 | 1012.7 |
| 20260906092657 | 63 | 196 | 2.0 | 5.0 | 0.01 | 0.03 | 0.01 | 93 | 1012.7 |
| 20260906092557 | 63 | 5 | 3.0 | 5.0 | 0.01 | 0.03 | 0.01 | 93 | 1012.7 |
| 20260906092459 | 63 | 9 | 5.0 | 6.0 | 0.01 | 0.03 | 0.01 | 93 | 1012.7 |
| 20260906092256 | 63 | 346 | 1.0 | 6.0 | 0.01 | 0.03 | 0.01 | 93 | 1012.7 |
| 20260906092157 | 63 | 346 | 2.0 | 6.0 | 0.01 | 0.03 | 0.01 | 93 | 1012.7 |
| 20260906091959 | 63 | 338 | 2.0 | 6.0 | 0.01 | 0.03 | 0.01 | 94 | 1012.7 |
| 20260906091858 | 63 | 338 | 1.0 | 6.0 | 0.01 | 0.03 | 0.01 | 94 | 1012.7 |
| 20260906091756 | 63 | 30 | 3.0 | 6.0 | 0.01 | 0.03 | 0.01 | 94 | 1012.7 |
| 20260906091657 | 63 | 19 | 1.0 | 6.0 | 0.01 | 0.03 | 0.01 | 94 | 1012.7 |
| 20260906091458 | 63 | 71 | 0.0 | 5.0 | 0.01 | 0.03 | 0.01 | 94 | 1012.7 |
| 20260906091357 | 63 | 71 | 0.0 | 5.0 | 0.01 | 0.03 | 0.01 | 94 | 1012.6 |
| 20260906091257 | 63 | 71 | 1.0 | 5.0 | 0.01 | 0.03 | 0.01 | 94 | 1012.6 |
| 20260906091156 | 63 | 78 | 1.0 | 6.0 | 0.01 | 0.03 | 0.01 | 95 | 1012.5 |
| 20260906090958 | 63 | 338 | 2.0 | 6.0 | 0.01 | 0.03 | 0.01 | 95 | 1012.6 |
| 20260906090900 | 63 | 18 | 3.0 | 6.0 | 0.01 | 0.03 | 0.01 | 95 | 1012.5 |
| 20260906090757 | 63 | 14 | 5.0 | 6.0 | 0.01 | 0.03 | 0.01 | 95 | 1012.5 |
| 20260906090656 | 63 | 27 | 0.0 | 6.0 | 0.01 | 0.03 | 0.01 | 96 | 1012.5 |
| 20260906090557 | 63 | 27 | 2.0 | 6.0 | 0.01 | 0.03 | 0.01 | 96 | 1012.5 |
| 20260906090500 | 63 | 9 | 1.0 | 6.0 | 0.01 | 0.03 | 0.01 | 96 | 1012.5 |
| 20260906090358 | 63 | 9 | 0.0 | 6.0 | 0.01 | 0.03 | 0.01 | 96 | 1012.5 |
| 20260906090257 | 63 | 9 | 2.0 | 6.0 | 0.01 | 0.03 | 0.01 | 96 | 1012.5 |
| 20260906090158 | 63 | 27 | 3.0 | 3.0 | 0.01 | 0.03 | 0.01 | 97 | 1012.5 |
| 20260906090058 | 63 | 30 | 0.0 | 0.0 | 0.01 | 0.03 | 0.01 | 97 | 1012.5 |
| 20260906090001 | 63 | 30 | 0.0 | 0.0 | 0.01 | 0.03 | 0.01 | 97 | 1012.5 |
| 20260906085858 | 63 | 30 | 0.0 | 0.0 | 0.01 | 0.03 | 0.01 | 97 | 1012.5 |
| 20260906085759 | 63 | 30 | 0.0 | 0.0 | 0.01 | 0.03 | 0.01 | 97 | 1012.6 |
| 20260906085658 | 63 | 30 | 0.0 | 0.0 | 0.01 | 0.03 | 0.01 | 97 | 1012.5 |
| 20260906085559 | 62 | 30 | 0.0 | 0.0 | 0.01 | 0.03 | 0.01 | 97 | 1012.5 |
| 20260906085500 | 62 | 30 | 0.0 | 0.0 | 0.01 | 0.03 | 0.01 | 98 | 1012.5 |
| 20260906085359 | 62 | 30 | 0.0 | 0.0 | 0.01 | 0.03 | 0.01 | 98 | 1012.5 |
| 20260906085259 | 62 | 30 | 0.0 | 0.0 | 0.01 | 0.03 | 0.01 | 97 | 1012.5 |
| 20260906085158 | 62 | 30 | 0.0 | 0.0 | 0.01 | 0.03 | 0.01 | 97 | 1012.5 |
| 20260906085058 | 62 | 30 | 0.0 | 0.0 | 0.01 | 0.03 | 0.01 | 97 | 1012.4 |
| 20260906085001 | 62 | 30 | 0.0 | 0.0 | 0.01 | 0.03 | 0.01 | 97 | 1012.3 |
| 20260906084858 | 62 | 30 | 0.0 | 0.0 | 0.01 | 0.03 | 0.01 | 97 | 1012.3 |
| 20260906084758 | 62 | 30 | 0.0 | 0.0 | 0.01 | 0.03 | 0.01 | 97 | 1012.3 |
| 20260906084558 | 61 | 30 | 0.0 | 0.0 | 0.01 | 0.03 | 0.01 | 97 | 1012.2 |
| 20260906084359 | 61 | 30 | 0.0 | 0.0 | 0.01 | 0.03 | 0.01 | 97 | 1012.2 |
| 20260906084258 | 61 | 30 | 0.0 | 0.0 | 0.01 | 0.03 | 0.01 | 97 | 1012.2 |
| 20260906084159 | 61 | 30 | 0.0 | 0.0 | 0.01 | 0.03 | 0.01 | 97 | 1012.2 |
| 20260906084000 | 61 | 30 | 0.0 | 0.0 | 0.01 | 0.03 | 0.01 | 97 | 1012.2 |
| 20260906083857 | 61 | 30 | 0.0 | 1.0 | 0.01 | 0.03 | 0.01 | 97 | 1012.2 |
| 20260906083758 | 61 | 30 | 0.0 | 1.0 | 0.00 | 0.02 | 0.00 | 97 | 1012.2 |
| 20260906083459 | 61 | 30 | 0.0 | 1.0 | 0.00 | 0.02 | 0.00 | 97 | 1012.2 |
| 20260906083359 | 61 | 30 | 0.0 | 1.0 | 0.00 | 0.02 | 0.00 | 97 | 1012.2 |
| 20260906083257 | 61 | 30 | 0.0 | 1.0 | 0.00 | 0.02 | 0.00 | 97 | 1012.2 |
| 20260906083157 | 61 | 30 | 0.0 | 1.0 | 0.00 | 0.02 | 0.00 | 97 | 1012.1 |
| 20260906083058 | 61 | 30 | 0.0 | 1.0 | 0.00 | 0.02 | 0.00 | 97 | 1012.2 |
| 20260906082959 | 61 | 30 | 0.0 | 1.0 | 0.00 | 0.02 | 0.00 | 97 | 1012.2 |
| 20260906082758 | 61 | 30 | 0.0 | 1.0 | 0.00 | 0.02 | 0.00 | 97 | 1012.1 |
| 20260906082658 | 61 | 30 | 0.0 | 1.0 | 0.00 | 0.02 | 0.00 | 97 | 1012.1 |
| 20260906082557 | 61 | 30 | 0.0 | 1.0 | 0.00 | 0.02 | 0.00 | 97 | 1012.1 |
| 20260906082458 | 61 | 30 | 1.0 | 1.0 | 0.00 | 0.02 | 0.00 | 97 | 1012.1 |
| 20260906082359 | 61 | 30 | 0.0 | 1.0 | 0.00 | 0.02 | 0.00 | 97 | 1012.1 |
| 20260906082257 | 61 | 30 | 0.0 | 1.0 | 0.00 | 0.02 | 0.00 | 97 | 1012.1 |
| 20260906082158 | 61 | 30 | 0.0 | 1.0 | 0.00 | 0.02 | 0.00 | 97 | 1012.1 |
| 20260906082059 | 61 | 30 | 0.0 | 1.0 | 0.00 | 0.02 | 0.00 | 97 | 1012.1 |
| 20260906081858 | 61 | 30 | 0.0 | 1.0 | 0.00 | 0.02 | 0.00 | 97 | 1012.1 |
| 20260906081759 | 61 | 30 | 0.0 | 1.0 | 0.00 | 0.02 | 0.00 | 97 | 1012.1 |
| 20260906081659 | 61 | 30 | 0.0 | 1.0 | 0.00 | 0.02 | 0.00 | 97 | 1012.1 |
| 20260906081557 | 61 | 30 | 0.0 | 1.0 | 0.00 | 0.02 | 0.00 | 97 | 1012.1 |
| 20260906081459 | 61 | 30 | 0.0 | 1.0 | 0.00 | 0.02 | 0.00 | 97 | 1012.1 |
| 20260906081358 | 61 | 30 | 0.0 | 1.0 | 0.00 | 0.02 | 0.00 | 97 | 1012.1 |
| 20260906081258 | 61 | 30 | 0.0 | 1.0 | 0.00 | 0.02 | 0.00 | 97 | 1012.1 |
| 20260906081158 | 61 | 30 | 0.0 | 1.0 | 0.00 | 0.02 | 0.00 | 97 | 1012.1 |
| 20260906081059 | 61 | 30 | 0.0 | 1.0 | 0.00 | 0.02 | 0.00 | 97 | 1012.1 |
| 20260906080958 | 61 | 30 | 0.0 | 1.0 | 0.00 | 0.02 | 0.00 | 97 | 1012.1 |
| 20260906080758 | 61 | 30 | 0.0 | 1.0 | 0.00 | 0.02 | 0.00 | 97 | 1012.1 |
| 20260906080658 | 61 | 30 | 0.0 | 1.0 | 0.00 | 0.02 | 0.00 | 97 | 1012.1 |
| 20260906080558 | 61 | 30 | 0.0 | 1.0 | 0.00 | 0.02 | 0.00 | 97 | 1012.1 |
| 20260906080500 | 61 | 30 | 0.0 | 2.0 | 0.00 | 0.02 | 0.00 | 97 | 1012.1 |
| 20260906080358 | 61 | 30 | 0.0 | 2.0 | 0.00 | 0.02 | 0.00 | 97 | 1012.1 |
| 20260906080257 | 61 | 30 | 0.0 | 2.0 | 0.00 | 0.02 | 0.00 | 97 | 1012.1 |
| 20260906080158 | 61 | 30 | 0.0 | 2.0 | 0.00 | 0.02 | 0.00 | 97 | 1012.1 |
| 20260906080058 | 61 | 30 | 0.0 | 2.0 | 0.00 | 0.02 | 0.00 | 97 | 1012.1 |
| 20260906075959 | 61 | 30 | 0.0 | 2.0 | 0.00 | 0.02 | 0.00 | 97 | 1012.1 |
| 20260906075857 | 61 | 30 | 0.0 | 2.0 | 0.00 | 0.02 | 0.00 | 97 | 1012.1 |
| 20260906075758 | 61 | 30 | 0.0 | 2.0 | 0.00 | 0.02 | 0.00 | 97 | 1012.1 |
| 20260906075657 | 61 | 30 | 0.0 | 2.0 | 0.00 | 0.02 | 0.00 | 97 | 1012.1 |
| 20260906075557 | 61 | 30 | 0.0 | 2.0 | 0.00 | 0.02 | 0.00 | 97 | 1012.1 |
| 20260906075357 | 61 | 30 | 1.0 | 1.0 | 0.00 | 0.02 | 0.00 | 97 | 1012.1 |
| 20260906075257 | 61 | 30 | 0.0 | 1.0 | 0.00 | 0.02 | 0.00 | 97 | 1012.1 |
| 20260906075156 | 61 | 30 | 0.0 | 1.0 | 0.00 | 0.02 | 0.00 | 97 | 1012.1 |
| 20260906075057 | 61 | 30 | 0.0 | 1.0 | 0.00 | 0.02 | 0.00 | 97 | 1012.1 |
| 20260906074958 | 61 | 30 | 0.0 | 1.0 | 0.00 | 0.02 | 0.00 | 97 | 1012.0 |
| 20260906074857 | 61 | 30 | 0.0 | 1.0 | 0.00 | 0.02 | 0.00 | 97 | 1012.1 |
| 20260906074757 | 61 | 30 | 0.0 | 1.0 | 0.00 | 0.02 | 0.00 | 97 | 1012.1 |
| 20260906074656 | 61 | 30 | 0.0 | 1.0 | 0.00 | 0.02 | 0.00 | 97 | 1012.1 |
| 20260906074558 | 61 | 30 | 0.0 | 1.0 | 0.00 | 0.02 | 0.00 | 97 | 1012.1 |
| 20260906074457 | 61 | 30 | 0.0 | 1.0 | 0.00 | 0.02 | 0.00 | 97 | 1012.1 |
| 20260906074357 | 60 | 30 | 0.0 | 1.0 | 0.00 | 0.02 | 0.00 | 97 | 1012.1 |
| 20260906074157 | 60 | 30 | 0.0 | 1.0 | 0.00 | 0.02 | 0.00 | 97 | 1012.1 |
| 20260906074057 | 60 | 30 | 0.0 | 1.0 | 0.00 | 0.02 | 0.00 | 97 | 1012.2 |
| 20260906073959 | 60 | 30 | 0.0 | 0.0 | 0.00 | 0.02 | 0.00 | 97 | 1012.1 |
| 20260906073858 | 60 | 30 | 0.0 | 0.0 | 0.00 | 0.02 | 0.00 | 97 | 1012.1 |
| 20260906073756 | 60 | 30 | 0.0 | 0.0 | 0.00 | 0.02 | 0.00 | 97 | 1012.1 |
| 20260906073657 | 60 | 30 | 0.0 | 0.0 | 0.00 | 0.02 | 0.00 | 97 | 1012.1 |
| 20260906073557 | 60 | 30 | 0.0 | 0.0 | 0.00 | 0.02 | 0.00 | 97 | 1012.1 |
| 20260906073458 | 60 | 30 | 0.0 | 0.0 | 0.00 | 0.02 | 0.00 | 97 | 1012.1 |
| 20260906073257 | 60 | 30 | 0.0 | 0.0 | 0.00 | 0.02 | 0.00 | 97 | 1012.1 |
| 20260906073157 | 60 | 30 | 0.0 | 0.0 | 0.00 | 0.02 | 0.00 | 97 | 1012.2 |
| 20260906073057 | 60 | 30 | 0.0 | 0.0 | 0.00 | 0.02 | 0.00 | 97 | 1012.1 |
| 20260906072958 | 60 | 30 | 0.0 | 0.0 | 0.00 | 0.02 | 0.00 | 97 | 1012.1 |
| 20260906072857 | 60 | 30 | 0.0 | 0.0 | 0.00 | 0.02 | 0.00 | 97 | 1012.2 |
| 20260906072757 | 60 | 30 | 0.0 | 0.0 | 0.00 | 0.02 | 0.00 | 97 | 1012.2 |
| 20260906072656 | 60 | 30 | 0.0 | 0.0 | 0.00 | 0.02 | 0.00 | 97 | 1012.1 |
| 20260906072557 | 60 | 30 | 0.0 | 0.0 | 0.00 | 0.02 | 0.00 | 97 | 1012.1 |
| 20260906072458 | 60 | 30 | 0.0 | 0.0 | 0.00 | 0.02 | 0.00 | 97 | 1012.2 |
| 20260906072357 | 60 | 30 | 0.0 | 0.0 | 0.00 | 0.02 | 0.00 | 97 | 1012.1 |
| 20260906072257 | 60 | 30 | 0.0 | 0.0 | 0.00 | 0.02 | 0.00 | 97 | 1012.1 |
| 20260906072157 | 60 | 30 | 0.0 | 0.0 | 0.00 | 0.02 | 0.00 | 97 | 1012.1 |
| 20260906072057 | 60 | 30 | 0.0 | 0.0 | 0.00 | 0.02 | 0.00 | 97 | 1012.1 |
| 20260906071957 | 60 | 30 | 0.0 | 0.0 | 0.00 | 0.02 | 0.00 | 97 | 1012.1 |
| 20260906071856 | 60 | 30 | 0.0 | 0.0 | 0.00 | 0.02 | 0.00 | 97 | 1012.0 |
| 20260906071600 | 61 | 30 | 0.0 | 0.0 | 0.00 | 0.02 | 0.00 | 97 | 1012.1 |
| 20260906071458 | 61 | 30 | 0.0 | 0.0 | 0.00 | 0.02 | 0.00 | 97 | 1012.1 |
| 20260906071256 | 61 | 30 | 0.0 | 0.0 | 0.00 | 0.02 | 0.00 | 97 | 1012.0 |
| 20260906071156 | 61 | 30 | 0.0 | 0.0 | 0.00 | 0.02 | 0.00 | 97 | 1012.0 |
| 20260906071057 | 61 | 30 | 0.0 | 0.0 | 0.00 | 0.02 | 0.00 | 97 | 1012.1 |
| 20260906070958 | 61 | 30 | 0.0 | 0.0 | 0.00 | 0.02 | 0.00 | 97 | 1012.1 |
| 20260906070757 | 61 | 30 | 0.0 | 0.0 | 0.00 | 0.02 | 0.00 | 97 | 1012.0 |
| 20260906070557 | 61 | 30 | 0.0 | 0.0 | 0.00 | 0.02 | 0.00 | 97 | 1012.0 |
| 20260906070459 | 61 | 30 | 0.0 | 0.0 | 0.00 | 0.02 | 0.00 | 97 | 1012.0 |
| 20260906070257 | 61 | 30 | 0.0 | 0.0 | 0.00 | 0.02 | 0.00 | 97 | 1012.0 |
| 20260906070157 | 61 | 30 | 0.0 | 0.0 | 0.00 | 0.02 | 0.00 | 97 | 1012.0 |
| 20260906070057 | 61 | 30 | 0.0 | 0.0 | 0.00 | 0.02 | 0.00 | 97 | 1012.0 |
| 20260906065958 | 61 | 30 | 0.0 | 0.0 | 0.00 | 0.02 | 0.00 | 97 | 1012.1 |
| 20260906065758 | 61 | 30 | 0.0 | 1.0 | 0.00 | 0.02 | 0.00 | 97 | 1012.1 |
| 20260906065657 | 61 | 30 | 0.0 | 1.0 | 0.00 | 0.02 | 0.00 | 97 | 1012.1 |
| 20260906065556 | 61 | 30 | 0.0 | 1.0 | 0.00 | 0.02 | 0.00 | 97 | 1012.1 |
| 20260906065457 | 61 | 30 | 0.0 | 1.0 | 0.00 | 0.02 | 0.00 | 97 | 1012.1 |
| 20260906065358 | 61 | 30 | 0.0 | 1.0 | 0.00 | 0.02 | 0.00 | 97 | 1012.1 |
| 20260906065257 | 61 | 30 | 0.0 | 1.0 | 0.00 | 0.02 | 0.00 | 97 | 1012.1 |
| 20260906065157 | 61 | 30 | 0.0 | 1.0 | 0.00 | 0.02 | 0.00 | 97 | 1012.1 |
| 20260906065057 | 61 | 30 | 0.0 | 1.0 | 0.00 | 0.02 | 0.00 | 97 | 1012.1 |
| 20260906064959 | 61 | 30 | 0.0 | 1.0 | 0.00 | 0.02 | 0.00 | 97 | 1012.1 |
| 20260906064900 | 61 | 30 | 1.0 | 1.0 | 0.00 | 0.02 | 0.00 | 97 | 1012.1 |
| 20260906064757 | 61 | 30 | 0.0 | 0.0 | 0.00 | 0.02 | 0.00 | 97 | 1012.2 |
| 20260906064458 | 61 | 30 | 0.0 | 0.0 | 0.00 | 0.02 | 0.00 | 97 | 1012.2 |
| 20260906064358 | 61 | 30 | 0.0 | 0.0 | 0.00 | 0.02 | 0.00 | 97 | 1012.2 |
| 20260906064257 | 61 | 30 | 0.0 | 0.0 | 0.00 | 0.02 | 0.00 | 97 | 1012.2 |
| 20260906064157 | 61 | 30 | 0.0 | 0.0 | 0.00 | 0.02 | 0.00 | 97 | 1012.2 |
| 20260906064056 | 61 | 30 | 0.0 | 0.0 | 0.00 | 0.02 | 0.00 | 97 | 1012.2 |
| 20260906063958 | 61 | 30 | 0.0 | 0.0 | 0.00 | 0.02 | 0.00 | 97 | 1012.2 |
| 20260906063856 | 61 | 30 | 0.0 | 0.0 | 0.00 | 0.02 | 0.00 | 97 | 1012.2 |
| 20260906063756 | 60 | 30 | 0.0 | 0.0 | 0.00 | 0.02 | 0.00 | 97 | 1012.2 |
| 20260906063657 | 60 | 30 | 0.0 | 0.0 | 0.00 | 0.02 | 0.00 | 97 | 1012.3 |
| 20260906063556 | 60 | 30 | 0.0 | 0.0 | 0.00 | 0.02 | 0.00 | 97 | 1012.2 |
| 20260906063458 | 60 | 30 | 0.0 | 0.0 | 0.00 | 0.02 | 0.00 | 97 | 1012.2 |
| 20260906063357 | 60 | 30 | 0.0 | 0.0 | 0.00 | 0.02 | 0.00 | 97 | 1012.2 |
| 20260906063156 | 60 | 30 | 0.0 | 0.0 | 0.00 | 0.02 | 0.00 | 97 | 1012.2 |
| 20260906063058 | 60 | 30 | 0.0 | 0.0 | 0.00 | 0.02 | 0.00 | 97 | 1012.2 |
| 20260906062856 | 60 | 30 | 0.0 | 0.0 | 0.00 | 0.02 | 0.00 | 97 | 1012.1 |
| 20260906062657 | 60 | 30 | 0.0 | 0.0 | 0.00 | 0.02 | 0.00 | 97 | 1012.1 |
| 20260906062557 | 60 | 30 | 0.0 | 0.0 | 0.00 | 0.02 | 0.00 | 97 | 1012.0 |
| 20260906062400 | 59 | 30 | 0.0 | 0.0 | 0.00 | 0.02 | 0.00 | 97 | 1012.1 |
| 20260906062256 | 59 | 30 | 0.0 | 0.0 | 0.00 | 0.02 | 0.00 | 97 | 1012.1 |
| 20260906062158 | 59 | 30 | 0.0 | 0.0 | 0.00 | 0.02 | 0.00 | 97 | 1012.1 |
| 20260906062057 | 59 | 30 | 0.0 | 0.0 | 0.00 | 0.02 | 0.00 | 97 | 1012.1 |
| 20260906061958 | 59 | 30 | 0.0 | 0.0 | 0.00 | 0.02 | 0.00 | 97 | 1012.1 |
| 20260906061657 | 60 | 30 | 0.0 | 0.0 | 0.00 | 0.02 | 0.00 | 97 | 1012.1 |
| 20260906061556 | 60 | 30 | 0.0 | 0.0 | 0.00 | 0.02 | 0.00 | 97 | 1012.1 |
| 20260906061459 | 60 | 30 | 0.0 | 0.0 | 0.00 | 0.02 | 0.00 | 97 | 1012.1 |
| 20260906061357 | 60 | 30 | 0.0 | 0.0 | 0.00 | 0.02 | 0.00 | 97 | 1012.2 |
| 20260906061256 | 60 | 30 | 0.0 | 0.0 | 0.00 | 0.02 | 0.00 | 97 | 1012.2 |
| 20260906061157 | 60 | 30 | 0.0 | 0.0 | 0.00 | 0.02 | 0.00 | 97 | 1012.1 |
| 20260906061059 | 60 | 30 | 0.0 | 0.0 | 0.00 | 0.02 | 0.00 | 97 | 1012.1 |
| 20260906060957 | 60 | 30 | 0.0 | 0.0 | 0.00 | 0.02 | 0.00 | 97 | 1012.1 |
| 20260906060756 | 60 | 30 | 0.0 | 0.0 | 0.00 | 0.02 | 0.00 | 97 | 1012.1 |
| 20260906060558 | 60 | 30 | 0.0 | 0.0 | 0.00 | 0.02 | 0.00 | 97 | 1012.1 |
| 20260906060458 | 60 | 30 | 0.0 | 0.0 | 0.00 | 0.02 | 0.00 | 97 | 1012.1 |
| 20260906060400 | 60 | 30 | 0.0 | 0.0 | 0.00 | 0.02 | 0.00 | 97 | 1012.1 |
| 20260906060256 | 60 | 30 | 0.0 | 0.0 | 0.00 | 0.02 | 0.00 | 97 | 1012.1 |
| 20260906060157 | 60 | 30 | 0.0 | 0.0 | 0.00 | 0.02 | 0.00 | 97 | 1012.1 |
| 20260906060058 | 60 | 30 | 0.0 | 0.0 | 0.00 | 0.02 | 0.00 | 97 | 1012.1 |
| 20260906055858 | 60 | 30 | 0.0 | 0.0 | 0.00 | 0.02 | 0.00 | 97 | 1012.1 |
| 20260906055757 | 60 | 30 | 0.0 | 0.0 | 0.00 | 0.02 | 0.00 | 97 | 1012.1 |
| 20260906055556 | 60 | 30 | 0.0 | 0.0 | 0.00 | 0.02 | 0.00 | 97 | 1012.2 |
| 20260906055458 | 60 | 30 | 0.0 | 0.0 | 0.00 | 0.02 | 0.00 | 97 | 1012.2 |
| 20260906055357 | 60 | 30 | 0.0 | 0.0 | 0.00 | 0.02 | 0.00 | 97 | 1012.2 |
| 20260906055157 | 60 | 30 | 0.0 | 0.0 | 0.00 | 0.02 | 0.00 | 97 | 1012.2 |
| 20260906055055 | 60 | 30 | 0.0 | 0.0 | 0.00 | 0.02 | 0.00 | 97 | 1012.2 |
| 20260906054959 | 60 | 30 | 0.0 | 0.0 | 0.00 | 0.02 | 0.00 | 97 | 1012.2 |
| 20260906054856 | 60 | 30 | 0.0 | 0.0 | 0.00 | 0.02 | 0.00 | 97 | 1012.2 |
| 20260906054757 | 60 | 30 | 0.0 | 0.0 | 0.00 | 0.02 | 0.00 | 97 | 1012.2 |
| 20260906054657 | 60 | 30 | 0.0 | 0.0 | 0.00 | 0.02 | 0.00 | 97 | 1012.2 |
| 20260906054557 | 60 | 30 | 0.0 | 0.0 | 0.00 | 0.02 | 0.00 | 97 | 1012.2 |
| 20260906054458 | 60 | 30 | 0.0 | 0.0 | 0.00 | 0.02 | 0.00 | 97 | 1012.3 |
| 20260906054358 | 60 | 30 | 0.0 | 0.0 | 0.00 | 0.02 | 0.00 | 96 | 1012.3 |
| 20260906054258 | 60 | 30 | 0.0 | 0.0 | 0.00 | 0.02 | 0.00 | 96 | 1012.3 |
| 20260906054158 | 60 | 30 | 0.0 | 0.0 | 0.00 | 0.02 | 0.00 | 96 | 1012.3 |
| 20260906053958 | 60 | 30 | 0.0 | 0.0 | 0.00 | 0.02 | 0.00 | 97 | 1012.3 |
| 20260906053857 | 60 | 30 | 0.0 | 0.0 | 0.00 | 0.02 | 0.00 | 97 | 1012.3 |
| 20260906053657 | 60 | 30 | 0.0 | 0.0 | 0.00 | 0.02 | 0.00 | 97 | 1012.4 |
| 20260906053459 | 60 | 30 | 0.0 | 0.0 | 0.00 | 0.02 | 0.00 | 97 | 1012.4 |
| 20260906053357 | 60 | 30 | 0.0 | 0.0 | 0.00 | 0.02 | 0.00 | 97 | 1012.4 |
| 20260906053256 | 60 | 30 | 0.0 | 0.0 | 0.00 | 0.02 | 0.00 | 97 | 1012.4 |
| 20260906052957 | 60 | 30 | 0.0 | 0.0 | 0.00 | 0.02 | 0.00 | 97 | 1012.4 |
| 20260906052857 | 60 | 30 | 0.0 | 0.0 | 0.00 | 0.02 | 0.00 | 97 | 1012.4 |
| 20260906052757 | 60 | 30 | 0.0 | 0.0 | 0.00 | 0.02 | 0.00 | 97 | 1012.4 |
| 20260906052657 | 60 | 30 | 0.0 | 0.0 | 0.00 | 0.02 | 0.00 | 97 | 1012.4 |
| 20260906052557 | 60 | 30 | 0.0 | 0.0 | 0.00 | 0.02 | 0.00 | 97 | 1012.4 |
| 20260906052458 | 60 | 30 | 0.0 | 0.0 | 0.00 | 0.02 | 0.00 | 97 | 1012.4 |
| 20260906052357 | 60 | 30 | 0.0 | 0.0 | 0.00 | 0.02 | 0.00 | 97 | 1012.4 |
| 20260906052257 | 60 | 30 | 0.0 | 0.0 | 0.00 | 0.02 | 0.00 | 97 | 1012.4 |
| 20260906052157 | 60 | 30 | 0.0 | 0.0 | 0.00 | 0.02 | 0.00 | 97 | 1012.4 |
| 20260906052057 | 60 | 30 | 0.0 | 0.0 | 0.00 | 0.02 | 0.00 | 97 | 1012.4 |
| 20260906051958 | 60 | 30 | 0.0 | 0.0 | 0.00 | 0.02 | 0.00 | 97 | 1012.4 |
| 20260906051857 | 60 | 30 | 0.0 | 0.0 | 0.00 | 0.02 | 0.00 | 97 | 1012.3 |
| 20260906051757 | 60 | 30 | 0.0 | 0.0 | 0.00 | 0.02 | 0.00 | 97 | 1012.3 |
| 20260906051657 | 60 | 30 | 0.0 | 0.0 | 0.00 | 0.02 | 0.00 | 97 | 1012.3 |
| 20260906051557 | 60 | 30 | 0.0 | 0.0 | 0.00 | 0.02 | 0.00 | 97 | 1012.4 |
| 20260906051459 | 60 | 30 | 0.0 | 0.0 | 0.00 | 0.02 | 0.00 | 97 | 1012.4 |
| 20260906051356 | 60 | 30 | 0.0 | 0.0 | 0.00 | 0.02 | 0.00 | 97 | 1012.4 |
| 20260906051156 | 60 | 30 | 0.0 | 0.0 | 0.00 | 0.02 | 0.00 | 97 | 1012.4 |
| 20260906051057 | 60 | 30 | 0.0 | 0.0 | 0.00 | 0.02 | 0.00 | 97 | 1012.4 |
| 20260906050958 | 60 | 30 | 0.0 | 0.0 | 0.00 | 0.02 | 0.00 | 97 | 1012.4 |
| 20260906050857 | 60 | 30 | 0.0 | 0.0 | 0.00 | 0.02 | 0.00 | 97 | 1012.4 |
| 20260906050757 | 60 | 30 | 0.0 | 0.0 | 0.00 | 0.02 | 0.00 | 97 | 1012.4 |
| 20260906050657 | 60 | 30 | 0.0 | 0.0 | 0.00 | 0.02 | 0.00 | 97 | 1012.4 |
| 20260906050557 | 60 | 30 | 0.0 | 0.0 | 0.00 | 0.02 | 0.00 | 97 | 1012.4 |
| 20260906050458 | 60 | 30 | 0.0 | 0.0 | 0.00 | 0.02 | 0.00 | 97 | 1012.4 |
| 20260906050357 | 60 | 30 | 0.0 | 0.0 | 0.00 | 0.02 | 0.00 | 97 | 1012.4 |
| 20260906050157 | 60 | 30 | 0.0 | 0.0 | 0.00 | 0.02 | 0.00 | 97 | 1012.4 |
| 20260906050057 | 60 | 30 | 0.0 | 0.0 | 0.00 | 0.02 | 0.00 | 97 | 1012.4 |
| 20260906045857 | 60 | 30 | 0.0 | 0.0 | 0.00 | 0.02 | 0.00 | 97 | 1012.4 |
| 20260906045759 | 60 | 30 | 0.0 | 0.0 | 0.00 | 0.02 | 0.00 | 97 | 1012.4 |
| 20260906045557 | 60 | 30 | 0.0 | 0.0 | 0.00 | 0.02 | 0.00 | 97 | 1012.4 |
| 20260906045459 | 60 | 30 | 0.0 | 0.0 | 0.00 | 0.02 | 0.00 | 97 | 1012.4 |
| 20260906045357 | 60 | 30 | 0.0 | 0.0 | 0.00 | 0.02 | 0.00 | 97 | 1012.4 |
| 20260906045256 | 60 | 30 | 0.0 | 0.0 | 0.00 | 0.02 | 0.00 | 97 | 1012.4 |
| 20260906045057 | 60 | 30 | 0.0 | 0.0 | 0.00 | 0.02 | 0.00 | 97 | 1012.4 |
| 20260906044857 | 60 | 30 | 0.0 | 0.0 | 0.00 | 0.02 | 0.00 | 97 | 1012.5 |
| 20260906044757 | 60 | 30 | 0.0 | 0.0 | 0.00 | 0.02 | 0.00 | 97 | 1012.5 |
| 20260906044657 | 60 | 30 | 0.0 | 0.0 | 0.00 | 0.02 | 0.00 | 97 | 1012.5 |
| 20260906044459 | 60 | 30 | 0.0 | 0.0 | 0.00 | 0.02 | 0.00 | 97 | 1012.5 |
| 20260906044357 | 60 | 30 | 0.0 | 0.0 | 0.00 | 0.02 | 0.00 | 97 | 1012.5 |
| 20260906044257 | 60 | 30 | 0.0 | 0.0 | 0.00 | 0.02 | 0.00 | 97 | 1012.5 |
| 20260906044157 | 60 | 30 | 0.0 | 0.0 | 0.00 | 0.02 | 0.00 | 97 | 1012.5 |
| 20260906044057 | 60 | 30 | 0.0 | 0.0 | 0.00 | 0.02 | 0.00 | 97 | 1012.5 |
| 20260906043857 | 60 | 30 | 0.0 | 0.0 | 0.00 | 0.02 | 0.00 | 97 | 1012.5 |
| 20260906043756 | 60 | 30 | 0.0 | 0.0 | 0.00 | 0.02 | 0.00 | 97 | 1012.5 |
| 20260906043656 | 60 | 30 | 0.0 | 0.0 | 0.00 | 0.02 | 0.00 | 97 | 1012.5 |
| 20260906043556 | 60 | 30 | 0.0 | 0.0 | 0.00 | 0.02 | 0.00 | 97 | 1012.5 |
| 20260906043458 | 60 | 30 | 0.0 | 0.0 | 0.00 | 0.02 | 0.00 | 97 | 1012.5 |
| 20260906043358 | 60 | 30 | 0.0 | 0.0 | 0.00 | 0.02 | 0.00 | 97 | 1012.5 |
| 20260906043257 | 60 | 30 | 0.0 | 0.0 | 0.00 | 0.02 | 0.00 | 97 | 1012.5 |
| 20260906043157 | 60 | 30 | 0.0 | 0.0 | 0.00 | 0.02 | 0.00 | 97 | 1012.5 |
| 20260906043058 | 60 | 30 | 0.0 | 0.0 | 0.00 | 0.02 | 0.00 | 97 | 1012.6 |
| 20260906042958 | 60 | 30 | 0.0 | 0.0 | 0.00 | 0.02 | 0.00 | 97 | 1012.6 |
| 20260906042857 | 60 | 30 | 0.0 | 0.0 | 0.00 | 0.02 | 0.00 | 97 | 1012.6 |
| 20260906042756 | 60 | 30 | 0.0 | 0.0 | 0.00 | 0.02 | 0.00 | 97 | 1012.6 |
| 20260906042657 | 60 | 30 | 0.0 | 0.0 | 0.00 | 0.02 | 0.00 | 97 | 1012.7 |
| 20260906042500 | 60 | 30 | 0.0 | 0.0 | 0.00 | 0.02 | 0.00 | 97 | 1012.7 |
| 20260906042256 | 60 | 30 | 0.0 | 0.0 | 0.00 | 0.02 | 0.00 | 97 | 1012.7 |
| 20260906042158 | 60 | 30 | 0.0 | 0.0 | 0.00 | 0.02 | 0.00 | 97 | 1012.7 |
| 20260906042057 | 60 | 30 | 0.0 | 0.0 | 0.00 | 0.02 | 0.00 | 97 | 1012.7 |
| 20260906041958 | 60 | 30 | 0.0 | 0.0 | 0.00 | 0.02 | 0.00 | 97 | 1012.7 |
| 20260906041857 | 60 | 30 | 0.0 | 0.0 | 0.00 | 0.02 | 0.00 | 97 | 1012.7 |
| 20260906041758 | 60 | 30 | 0.0 | 0.0 | 0.00 | 0.02 | 0.00 | 97 | 1012.7 |
| 20260906041657 | 60 | 30 | 0.0 | 0.0 | 0.00 | 0.02 | 0.00 | 97 | 1012.7 |
| 20260906041556 | 60 | 30 | 0.0 | 0.0 | 0.00 | 0.02 | 0.00 | 97 | 1012.7 |
| 20260906041458 | 60 | 30 | 0.0 | 0.0 | 0.00 | 0.02 | 0.00 | 97 | 1012.7 |
| 20260906041357 | 60 | 30 | 0.0 | 0.0 | 0.00 | 0.02 | 0.00 | 97 | 1012.6 |
| 20260906041200 | 60 | 30 | 0.0 | 0.0 | 0.00 | 0.02 | 0.00 | 97 | 1012.6 |
| 20260906041057 | 60 | 30 | 0.0 | 0.0 | 0.00 | 0.02 | 0.00 | 97 | 1012.6 |
| 20260906040959 | 60 | 30 | 0.0 | 0.0 | 0.00 | 0.02 | 0.00 | 97 | 1012.6 |
| 20260906040656 | 60 | 30 | 0.0 | 0.0 | 0.00 | 0.02 | 0.00 | 97 | 1012.6 |
| 20260906040558 | 60 | 30 | 0.0 | 0.0 | 0.00 | 0.02 | 0.00 | 97 | 1012.6 |
| 20260906040458 | 60 | 30 | 0.0 | 0.0 | 0.00 | 0.02 | 0.00 | 97 | 1012.5 |
| 20260906040357 | 60 | 30 | 0.0 | 0.0 | 0.00 | 0.02 | 0.00 | 97 | 1012.5 |
| 20260906040200 | 61 | 30 | 0.0 | 0.0 | 0.00 | 0.02 | 0.00 | 97 | 1012.5 |
| 20260906040100 | 61 | 30 | 0.0 | 0.0 | 0.00 | 0.02 | 0.00 | 97 | 1012.5 |
| 20260906035859 | 61 | 30 | 0.0 | 0.0 | 0.00 | 0.02 | 0.02 | 97 | 1012.5 |
| 20260906035801 | 61 | 30 | 0.0 | 0.0 | 0.00 | 0.02 | 0.02 | 97 | 1012.6 |
| 20260906035659 | 61 | 30 | 0.0 | 0.0 | 0.00 | 0.02 | 0.02 | 97 | 1012.6 |
| 20260906035559 | 61 | 30 | 0.0 | 0.0 | 0.00 | 0.02 | 0.02 | 97 | 1012.5 |
| 20260906035500 | 61 | 30 | 0.0 | 0.0 | 0.00 | 0.02 | 0.02 | 97 | 1012.5 |
| 20260906035402 | 61 | 30 | 0.0 | 0.0 | 0.00 | 0.02 | 0.02 | 97 | 1012.5 |
| 20260906035259 | 61 | 30 | 0.0 | 0.0 | 0.00 | 0.02 | 0.02 | 97 | 1012.5 |
| 20260906035059 | 61 | 30 | 0.0 | 0.0 | 0.00 | 0.02 | 0.02 | 97 | 1012.6 |
| 20260906034902 | 61 | 30 | 0.0 | 0.0 | 0.00 | 0.02 | 0.02 | 97 | 1012.5 |
| 20260906034759 | 61 | 30 | 0.0 | 0.0 | 0.00 | 0.02 | 0.02 | 97 | 1012.5 |
| 20260906034701 | 61 | 30 | 0.0 | 0.0 | 0.00 | 0.02 | 0.02 | 97 | 1012.5 |
| 20260906034502 | 61 | 30 | 0.0 | 0.0 | 0.00 | 0.02 | 0.02 | 97 | 1012.4 |
| 20260906034359 | 61 | 30 | 0.0 | 0.0 | 0.00 | 0.02 | 0.02 | 97 | 1012.4 |
| 20260906034300 | 61 | 30 | 0.0 | 0.0 | 0.00 | 0.02 | 0.02 | 97 | 1012.4 |
| 20260906034158 | 61 | 30 | 0.0 | 0.0 | 0.00 | 0.02 | 0.02 | 97 | 1012.4 |
| 20260906034101 | 61 | 30 | 0.0 | 0.0 | 0.00 | 0.02 | 0.02 | 97 | 1012.4 |
| 20260906033859 | 61 | 30 | 0.0 | 0.0 | 0.00 | 0.02 | 0.02 | 97 | 1012.4 |
| 20260906033759 | 61 | 30 | 0.0 | 0.0 | 0.00 | 0.02 | 0.02 | 97 | 1012.4 |
| 20260906033659 | 61 | 30 | 0.0 | 0.0 | 0.00 | 0.02 | 0.02 | 97 | 1012.4 |
| 20260906033600 | 61 | 30 | 0.0 | 0.0 | 0.00 | 0.02 | 0.02 | 97 | 1012.4 |
| 20260906033501 | 61 | 30 | 0.0 | 0.0 | 0.00 | 0.02 | 0.02 | 97 | 1012.4 |
| 20260906033358 | 61 | 30 | 0.0 | 0.0 | 0.00 | 0.02 | 0.02 | 97 | 1012.4 |
| 20260906033300 | 61 | 30 | 0.0 | 0.0 | 0.00 | 0.02 | 0.02 | 97 | 1012.4 |
| 20260906033159 | 61 | 30 | 0.0 | 0.0 | 0.00 | 0.02 | 0.02 | 97 | 1012.4 |
| 20260906033059 | 61 | 30 | 0.0 | 0.0 | 0.00 | 0.02 | 0.02 | 97 | 1012.4 |
| 20260906033001 | 61 | 30 | 0.0 | 0.0 | 0.00 | 0.02 | 0.02 | 97 | 1012.4 |
| 20260906032900 | 61 | 30 | 0.0 | 0.0 | 0.00 | 0.02 | 0.02 | 97 | 1012.4 |
| 20260906032759 | 61 | 30 | 0.0 | 0.0 | 0.00 | 0.02 | 0.02 | 97 | 1012.3 |
| 20260906032659 | 61 | 30 | 0.0 | 0.0 | 0.00 | 0.02 | 0.02 | 97 | 1012.3 |
| 20260906032559 | 61 | 30 | 0.0 | 0.0 | 0.00 | 0.02 | 0.02 | 97 | 1012.4 |
| 20260906032500 | 61 | 30 | 0.0 | 0.0 | 0.00 | 0.02 | 0.02 | 97 | 1012.4 |
| 20260906032359 | 61 | 30 | 0.0 | 0.0 | 0.00 | 0.02 | 0.02 | 97 | 1012.4 |
| 20260906032259 | 61 | 30 | 0.0 | 0.0 | 0.00 | 0.02 | 0.02 | 97 | 1012.3 |
| 20260906032159 | 61 | 30 | 0.0 | 0.0 | 0.00 | 0.02 | 0.02 | 97 | 1012.4 |
| 20260906032059 | 61 | 30 | 0.0 | 0.0 | 0.00 | 0.02 | 0.02 | 97 | 1012.4 |
| 20260906031859 | 61 | 30 | 0.0 | 0.0 | 0.00 | 0.02 | 0.02 | 97 | 1012.4 |
| 20260906031800 | 61 | 30 | 0.0 | 0.0 | 0.00 | 0.02 | 0.02 | 97 | 1012.4 |
| 20260906031700 | 61 | 30 | 0.0 | 0.0 | 0.00 | 0.02 | 0.02 | 97 | 1012.4 |
| 20260906031600 | 61 | 30 | 0.0 | 0.0 | 0.00 | 0.02 | 0.02 | 97 | 1012.4 |
| 20260906031400 | 61 | 30 | 0.0 | 0.0 | 0.00 | 0.02 | 0.02 | 97 | 1012.4 |
| 20260906031259 | 61 | 30 | 0.0 | 0.0 | 0.00 | 0.02 | 0.02 | 97 | 1012.3 |
| 20260906031100 | 61 | 30 | 0.0 | 0.0 | 0.00 | 0.02 | 0.02 | 97 | 1012.3 |
| 20260906030859 | 61 | 30 | 0.0 | 0.0 | 0.00 | 0.02 | 0.02 | 97 | 1012.3 |
| 20260906030801 | 61 | 30 | 0.0 | 0.0 | 0.00 | 0.02 | 0.02 | 97 | 1012.3 |
| 20260906030659 | 61 | 30 | 0.0 | 0.0 | 0.00 | 0.02 | 0.02 | 97 | 1012.3 |
| 20260906030559 | 61 | 30 | 0.0 | 0.0 | 0.00 | 0.02 | 0.02 | 97 | 1012.3 |
| 20260906030502 | 61 | 30 | 0.0 | 0.0 | 0.00 | 0.02 | 0.02 | 97 | 1012.3 |
| 20260906030400 | 61 | 30 | 0.0 | 0.0 | 0.00 | 0.02 | 0.02 | 97 | 1012.3 |
| 20260906030300 | 61 | 30 | 0.0 | 0.0 | 0.00 | 0.02 | 0.02 | 97 | 1012.3 |
| 20260906030201 | 61 | 30 | 0.0 | 0.0 | 0.00 | 0.02 | 0.02 | 97 | 1012.3 |
| 20260906030058 | 61 | 30 | 0.0 | 0.0 | 0.00 | 0.02 | 0.02 | 97 | 1012.3 |
| 20260906025859 | 61 | 30 | 0.0 | 0.0 | 0.00 | 0.02 | 0.02 | 97 | 1012.3 |
| 20260906025759 | 61 | 30 | 0.0 | 0.0 | 0.00 | 0.02 | 0.02 | 97 | 1012.2 |
| 20260906025659 | 61 | 30 | 0.0 | 1.0 | 0.00 | 0.02 | 0.02 | 97 | 1012.2 |
| 20260906025559 | 61 | 30 | 0.0 | 1.0 | 0.00 | 0.02 | 0.02 | 97 | 1012.2 |
| 20260906025501 | 61 | 30 | 0.0 | 1.0 | 0.00 | 0.02 | 0.02 | 97 | 1012.2 |
| 20260906025359 | 61 | 30 | 0.0 | 1.0 | 0.00 | 0.02 | 0.02 | 97 | 1012.1 |
| 20260906025258 | 62 | 30 | 0.0 | 1.0 | 0.00 | 0.02 | 0.02 | 97 | 1012.1 |
| 20260906025200 | 62 | 30 | 0.0 | 1.0 | 0.00 | 0.02 | 0.02 | 97 | 1012.1 |
| 20260906025059 | 62 | 30 | 0.0 | 1.0 | 0.00 | 0.02 | 0.02 | 97 | 1012.1 |
| 20260906025000 | 62 | 30 | 0.0 | 1.0 | 0.00 | 0.02 | 0.02 | 97 | 1012.1 |
| 20260906024858 | 62 | 30 | 0.0 | 1.0 | 0.00 | 0.02 | 0.02 | 97 | 1012.0 |
| 20260906024759 | 62 | 30 | 0.0 | 1.0 | 0.00 | 0.02 | 0.02 | 97 | 1012.0 |
| 20260906024658 | 62 | 30 | 0.0 | 0.0 | 0.00 | 0.02 | 0.02 | 97 | 1012.0 |
| 20260906024558 | 62 | 30 | 0.0 | 0.0 | 0.00 | 0.02 | 0.02 | 97 | 1012.0 |
| 20260906024358 | 62 | 30 | 0.0 | 0.0 | 0.00 | 0.02 | 0.02 | 97 | 1012.0 |
| 20260906024258 | 62 | 30 | 0.0 | 0.0 | 0.00 | 0.02 | 0.02 | 97 | 1012.0 |
| 20260906024157 | 62 | 30 | 0.0 | 0.0 | 0.00 | 0.02 | 0.02 | 97 | 1011.9 |
| 20260906024102 | 62 | 30 | 0.0 | 0.0 | 0.00 | 0.02 | 0.02 | 96 | 1012.0 |
| 20260906023959 | 62 | 30 | 0.0 | 0.0 | 0.00 | 0.02 | 0.02 | 96 | 1011.9 |
| 20260906023858 | 62 | 30 | 0.0 | 0.0 | 0.00 | 0.02 | 0.02 | 96 | 1012.0 |
| 20260906023758 | 62 | 30 | 0.0 | 0.0 | 0.00 | 0.02 | 0.02 | 96 | 1011.9 |
| 20260906023358 | 62 | 30 | 0.0 | 0.0 | 0.00 | 0.02 | 0.02 | 96 | 1011.9 |
| 20260906023259 | 62 | 30 | 0.0 | 0.0 | 0.00 | 0.02 | 0.02 | 96 | 1012.0 |
| 20260906023159 | 62 | 30 | 0.0 | 0.0 | 0.00 | 0.02 | 0.02 | 96 | 1011.9 |
| 20260906023058 | 62 | 30 | 0.0 | 0.0 | 0.00 | 0.02 | 0.02 | 96 | 1011.9 |
| 20260906023000 | 62 | 30 | 0.0 | 0.0 | 0.00 | 0.02 | 0.02 | 96 | 1011.9 |
| 20260906022858 | 62 | 30 | 0.0 | 0.0 | 0.00 | 0.02 | 0.02 | 96 | 1011.8 |
| 20260906022758 | 62 | 30 | 0.0 | 0.0 | 0.00 | 0.02 | 0.02 | 96 | 1011.8 |
| 20260906022658 | 62 | 30 | 0.0 | 0.0 | 0.00 | 0.02 | 0.02 | 96 | 1011.7 |
| 20260906022559 | 62 | 30 | 0.0 | 0.0 | 0.00 | 0.02 | 0.02 | 96 | 1011.7 |
| 20260906022358 | 62 | 30 | 0.0 | 0.0 | 0.00 | 0.02 | 0.02 | 96 | 1011.7 |
| 20260906022258 | 62 | 30 | 0.0 | 0.0 | 0.00 | 0.02 | 0.02 | 96 | 1011.7 |
| 20260906022158 | 62 | 30 | 0.0 | 0.0 | 0.00 | 0.02 | 0.02 | 96 | 1011.7 |
| 20260906022100 | 62 | 30 | 0.0 | 0.0 | 0.00 | 0.02 | 0.02 | 96 | 1011.7 |
| 20260906021959 | 62 | 30 | 0.0 | 0.0 | 0.00 | 0.02 | 0.02 | 96 | 1011.8 |
| 20260906021859 | 62 | 30 | 0.0 | 0.0 | 0.00 | 0.02 | 0.02 | 96 | 1011.8 |
| 20260906021758 | 62 | 30 | 0.0 | 0.0 | 0.00 | 0.02 | 0.02 | 96 | 1011.8 |
| 20260906021658 | 62 | 30 | 0.0 | 0.0 | 0.00 | 0.02 | 0.02 | 96 | 1011.7 |
| 20260906021559 | 62 | 30 | 0.0 | 0.0 | 0.00 | 0.02 | 0.02 | 96 | 1011.7 |
| 20260906021501 | 62 | 30 | 0.0 | 0.0 | 0.00 | 0.02 | 0.02 | 96 | 1011.8 |
| 20260906021159 | 62 | 30 | 0.0 | 0.0 | 0.00 | 0.02 | 0.02 | 95 | 1011.6 |
| 20260906021059 | 62 | 30 | 0.0 | 0.0 | 0.00 | 0.02 | 0.02 | 95 | 1011.7 |
| 20260906021000 | 62 | 30 | 0.0 | 0.0 | 0.00 | 0.02 | 0.02 | 95 | 1011.7 |
| 20260906020858 | 62 | 30 | 0.0 | 0.0 | 0.00 | 0.02 | 0.02 | 95 | 1011.7 |
| 20260906020800 | 62 | 30 | 0.0 | 0.0 | 0.00 | 0.02 | 0.02 | 96 | 1011.6 |
| 20260906020658 | 63 | 30 | 0.0 | 0.0 | 0.00 | 0.02 | 0.02 | 95 | 1011.7 |
| 20260906020558 | 63 | 30 | 0.0 | 0.0 | 0.00 | 0.02 | 0.02 | 95 | 1011.6 |
| 20260906020459 | 63 | 30 | 0.0 | 1.0 | 0.00 | 0.02 | 0.02 | 95 | 1011.6 |
| 20260906020359 | 63 | 30 | 0.0 | 1.0 | 0.00 | 0.02 | 0.02 | 95 | 1011.6 |
| 20260906020259 | 63 | 30 | 0.0 | 1.0 | 0.00 | 0.02 | 0.02 | 95 | 1011.6 |
| 20260906020058 | 63 | 30 | 0.0 | 1.0 | 0.00 | 0.02 | 0.02 | 95 | 1011.6 |
| 20260906020002 | 63 | 30 | 0.0 | 1.0 | 0.00 | 0.02 | 0.02 | 95 | 1011.6 |
| 20260906015858 | 63 | 30 | 0.0 | 1.0 | 0.00 | 0.02 | 0.02 | 95 | 1011.6 |
| 20260906015759 | 63 | 30 | 0.0 | 1.0 | 0.00 | 0.02 | 0.02 | 95 | 1011.6 |
| 20260906015659 | 63 | 30 | 0.0 | 1.0 | 0.00 | 0.02 | 0.02 | 95 | 1011.7 |
| 20260906015559 | 63 | 30 | 0.0 | 1.0 | 0.00 | 0.02 | 0.02 | 95 | 1011.6 |
| 20260906015503 | 63 | 30 | 0.0 | 1.0 | 0.00 | 0.02 | 0.02 | 95 | 1011.5 |
| 20260906015359 | 63 | 30 | 0.0 | 1.0 | 0.00 | 0.02 | 0.02 | 95 | 1011.5 |
| 20260906015300 | 63 | 30 | 0.0 | 1.0 | 0.00 | 0.02 | 0.02 | 95 | 1011.5 |
| 20260906015159 | 63 | 30 | 0.0 | 1.0 | 0.00 | 0.02 | 0.02 | 95 | 1011.5 |
| 20260906015058 | 63 | 30 | 0.0 | 1.0 | 0.00 | 0.02 | 0.02 | 95 | 1011.5 |
| 20260906015000 | 63 | 30 | 0.0 | 1.0 | 0.00 | 0.02 | 0.02 | 95 | 1011.5 |
| 20260906014900 | 63 | 30 | 0.0 | 1.0 | 0.00 | 0.02 | 0.02 | 95 | 1011.5 |
| 20260906014758 | 63 | 30 | 0.0 | 0.0 | 0.00 | 0.02 | 0.02 | 95 | 1011.5 |
| 20260906014659 | 63 | 30 | 0.0 | 0.0 | 0.00 | 0.02 | 0.02 | 95 | 1011.5 |
| 20260906014600 | 63 | 30 | 0.0 | 0.0 | 0.00 | 0.02 | 0.02 | 95 | 1011.4 |
| 20260906014501 | 63 | 30 | 0.0 | 0.0 | 0.00 | 0.02 | 0.02 | 95 | 1011.4 |
| 20260906014300 | 63 | 30 | 0.0 | 0.0 | 0.00 | 0.02 | 0.02 | 95 | 1011.4 |
| 20260906014200 | 63 | 30 | 0.0 | 0.0 | 0.00 | 0.02 | 0.02 | 95 | 1011.4 |
| 20260906014059 | 63 | 30 | 0.0 | 0.0 | 0.00 | 0.02 | 0.02 | 95 | 1011.4 |
| 20260906014003 | 63 | 30 | 0.0 | 0.0 | 0.00 | 0.02 | 0.02 | 94 | 1011.5 |
| 20260906013858 | 63 | 30 | 0.0 | 0.0 | 0.00 | 0.02 | 0.02 | 94 | 1011.5 |
| 20260906013759 | 63 | 30 | 0.0 | 0.0 | 0.00 | 0.02 | 0.02 | 94 | 1011.4 |
| 20260906013700 | 63 | 30 | 0.0 | 0.0 | 0.00 | 0.02 | 0.02 | 94 | 1011.4 |
| 20260906013600 | 63 | 30 | 0.0 | 0.0 | 0.00 | 0.02 | 0.02 | 94 | 1011.4 |
| 20260906013501 | 63 | 30 | 0.0 | 0.0 | 0.00 | 0.02 | 0.02 | 94 | 1011.3 |
| 20260906013200 | 64 | 30 | 0.0 | 0.0 | 0.00 | 0.02 | 0.02 | 94 | 1011.4 |
| 20260906012859 | 64 | 30 | 0.0 | 0.0 | 0.00 | 0.02 | 0.02 | 93 | 1011.4 |
| 20260906012700 | 64 | 30 | 0.0 | 0.0 | 0.00 | 0.02 | 0.02 | 93 | 1011.4 |
| 20260906012559 | 64 | 30 | 0.0 | 0.0 | 0.00 | 0.02 | 0.02 | 93 | 1011.4 |
| 20260906012503 | 64 | 30 | 0.0 | 0.0 | 0.00 | 0.02 | 0.02 | 93 | 1011.4 |
| 20260906012359 | 64 | 30 | 0.0 | 0.0 | 0.00 | 0.02 | 0.02 | 93 | 1011.4 |
| 20260906012300 | 64 | 30 | 0.0 | 0.0 | 0.00 | 0.02 | 0.02 | 93 | 1011.4 |
| 20260906012201 | 64 | 30 | 0.0 | 0.0 | 0.00 | 0.02 | 0.02 | 93 | 1011.4 |
| 20260906012100 | 64 | 30 | 0.0 | 0.0 | 0.00 | 0.02 | 0.02 | 93 | 1011.4 |
| 20260906012002 | 64 | 30 | 0.0 | 0.0 | 0.00 | 0.02 | 0.02 | 93 | 1011.3 |
| 20260906011858 | 64 | 30 | 0.0 | 0.0 | 0.00 | 0.02 | 0.02 | 93 | 1011.3 |
| 20260906011800 | 64 | 30 | 0.0 | 0.0 | 0.00 | 0.02 | 0.02 | 93 | 1011.3 |
| 20260906011700 | 64 | 30 | 0.0 | 0.0 | 0.00 | 0.02 | 0.02 | 93 | 1011.3 |
| 20260906011501 | 64 | 30 | 0.0 | 0.0 | 0.00 | 0.02 | 0.02 | 93 | 1011.4 |
| 20260906011059 | 64 | 30 | 0.0 | 0.0 | 0.00 | 0.02 | 0.02 | 92 | 1011.4 |
| 20260906011001 | 64 | 30 | 0.0 | 0.0 | 0.00 | 0.02 | 0.02 | 92 | 1011.4 |
| 20260906010900 | 64 | 30 | 0.0 | 0.0 | 0.00 | 0.02 | 0.02 | 92 | 1011.4 |
| 20260906010701 | 65 | 30 | 0.0 | 0.0 | 0.00 | 0.02 | 0.02 | 92 | 1011.3 |
| 20260906010559 | 65 | 30 | 0.0 | 0.0 | 0.00 | 0.02 | 0.02 | 92 | 1011.3 |
| 20260906010503 | 65 | 30 | 0.0 | 0.0 | 0.00 | 0.02 | 0.02 | 92 | 1011.3 |
| 20260906010359 | 65 | 30 | 0.0 | 0.0 | 0.00 | 0.02 | 0.02 | 92 | 1011.3 |
| 20260906010300 | 65 | 30 | 0.0 | 0.0 | 0.00 | 0.02 | 0.02 | 92 | 1011.3 |
| 20260906010158 | 65 | 30 | 0.0 | 0.0 | 0.00 | 0.02 | 0.02 | 92 | 1011.3 |
| 20260906010002 | 65 | 30 | 0.0 | 1.0 | 0.00 | 0.02 | 0.02 | 92 | 1011.3 |
| 20260906005858 | 65 | 30 | 0.0 | 1.0 | 0.00 | 0.02 | 0.02 | 92 | 1011.2 |
| 20260906005658 | 65 | 30 | 0.0 | 1.0 | 0.00 | 0.02 | 0.02 | 92 | 1011.2 |
| 20260906005559 | 65 | 30 | 0.0 | 1.0 | 0.00 | 0.02 | 0.02 | 92 | 1011.2 |
| 20260906005500 | 65 | 30 | 0.0 | 1.0 | 0.00 | 0.02 | 0.02 | 92 | 1011.1 |
| 20260906005359 | 65 | 30 | 0.0 | 1.0 | 0.00 | 0.02 | 0.02 | 92 | 1011.1 |
| 20260906005258 | 65 | 30 | 0.0 | 1.0 | 0.00 | 0.02 | 0.02 | 92 | 1011.1 |
| 20260906005158 | 65 | 30 | 0.0 | 1.0 | 0.00 | 0.02 | 0.02 | 91 | 1011.1 |
| 20260906005058 | 65 | 30 | 0.0 | 1.0 | 0.00 | 0.02 | 0.02 | 91 | 1011.1 |
| 20260906004858 | 66 | 30 | 0.0 | 0.0 | 0.00 | 0.02 | 0.02 | 91 | 1011.1 |
| 20260906004759 | 66 | 30 | 0.0 | 0.0 | 0.00 | 0.02 | 0.02 | 91 | 1011.0 |
| 20260906004558 | 66 | 30 | 0.0 | 0.0 | 0.00 | 0.02 | 0.02 | 91 | 1011.0 |
| 20260906004500 | 66 | 30 | 0.0 | 0.0 | 0.00 | 0.02 | 0.02 | 91 | 1011.0 |
| 20260906004401 | 66 | 30 | 0.0 | 1.0 | 0.00 | 0.02 | 0.02 | 91 | 1011.0 |
| 20260906004258 | 66 | 30 | 0.0 | 1.0 | 0.00 | 0.02 | 0.02 | 91 | 1010.9 |
| 20260906004159 | 66 | 30 | 0.0 | 1.0 | 0.00 | 0.02 | 0.02 | 91 | 1010.9 |
| 20260906004058 | 66 | 30 | 0.0 | 1.0 | 0.00 | 0.02 | 0.02 | 91 | 1011.0 |
| 20260906004000 | 66 | 30 | 0.0 | 1.0 | 0.00 | 0.02 | 0.02 | 91 | 1010.9 |
| 20260906003858 | 66 | 30 | 0.0 | 1.0 | 0.00 | 0.02 | 0.02 | 90 | 1010.9 |
| 20260906003758 | 66 | 30 | 0.0 | 1.0 | 0.00 | 0.02 | 0.02 | 90 | 1011.0 |
| 20260906003659 | 66 | 30 | 0.0 | 1.0 | 0.00 | 0.02 | 0.02 | 90 | 1011.0 |
| 20260906003459 | 66 | 30 | 0.0 | 1.0 | 0.00 | 0.02 | 0.02 | 90 | 1011.0 |
| 20260906003300 | 66 | 30 | 0.0 | 0.0 | 0.00 | 0.02 | 0.02 | 90 | 1011.0 |
| 20260906003158 | 66 | 30 | 0.0 | 0.0 | 0.00 | 0.02 | 0.02 | 90 | 1011.0 |
| 20260906003058 | 66 | 30 | 0.0 | 0.0 | 0.00 | 0.02 | 0.02 | 90 | 1010.9 |
| 20260906003000 | 66 | 30 | 0.0 | 0.0 | 0.00 | 0.02 | 0.02 | 90 | 1011.0 |
| 20260906002858 | 67 | 30 | 0.0 | 1.0 | 0.00 | 0.02 | 0.02 | 90 | 1011.0 |
| 20260906002759 | 67 | 30 | 0.0 | 1.0 | 0.00 | 0.02 | 0.02 | 90 | 1010.9 |
| 20260906002658 | 67 | 30 | 0.0 | 2.0 | 0.00 | 0.02 | 0.02 | 89 | 1010.9 |
| 20260906002559 | 67 | 30 | 0.0 | 2.0 | 0.00 | 0.02 | 0.02 | 89 | 1010.9 |
| 20260906002501 | 67 | 30 | 0.0 | 2.0 | 0.00 | 0.02 | 0.02 | 89 | 1010.9 |
| 20260906002357 | 67 | 30 | 0.0 | 2.0 | 0.00 | 0.02 | 0.02 | 89 | 1010.9 |
| 20260906002258 | 67 | 30 | 0.0 | 2.0 | 0.00 | 0.02 | 0.02 | 89 | 1010.8 |
| 20260906002159 | 67 | 30 | 0.0 | 2.0 | 0.00 | 0.02 | 0.02 | 89 | 1010.9 |
| 20260906001959 | 67 | 30 | 0.0 | 2.0 | 0.00 | 0.02 | 0.02 | 89 | 1010.7 |
| 20260906001859 | 67 | 30 | 1.0 | 2.0 | 0.00 | 0.02 | 0.02 | 89 | 1010.8 |
| 20260906001759 | 67 | 30 | 0.0 | 2.0 | 0.00 | 0.02 | 0.02 | 88 | 1010.8 |
| 20260906001658 | 67 | 30 | 1.0 | 2.0 | 0.00 | 0.02 | 0.02 | 88 | 1010.7 |
| 20260906001558 | 67 | 30 | 0.0 | 1.0 | 0.00 | 0.02 | 0.02 | 88 | 1010.9 |
| 20260906001459 | 67 | 30 | 0.0 | 1.0 | 0.00 | 0.02 | 0.02 | 88 | 1010.8 |
| 20260906001359 | 68 | 30 | 0.0 | 1.0 | 0.00 | 0.02 | 0.02 | 88 | 1010.8 |
| 20260906001258 | 68 | 30 | 0.0 | 1.0 | 0.00 | 0.02 | 0.02 | 87 | 1010.8 |
| 20260906001158 | 68 | 30 | 0.0 | 1.0 | 0.00 | 0.02 | 0.02 | 87 | 1010.7 |
| 20260906001059 | 68 | 30 | 0.0 | 1.0 | 0.00 | 0.02 | 0.02 | 87 | 1010.7 |
| 20260906001000 | 68 | 30 | 0.0 | 1.0 | 0.00 | 0.02 | 0.02 | 87 | 1010.6 |
| 20260906000758 | 68 | 30 | 0.0 | 1.0 | 0.00 | 0.02 | 0.02 | 87 | 1010.6 |
| 20260906000658 | 68 | 30 | 1.0 | 1.0 | 0.00 | 0.02 | 0.02 | 86 | 1010.6 |
| 20260906000558 | 68 | 30 | 0.0 | 1.0 | 0.00 | 0.02 | 0.02 | 86 | 1010.6 |
| 20260906000503 | 68 | 30 | 0.0 | 1.0 | 0.00 | 0.02 | 0.02 | 86 | 1010.5 |
| 20260906000259 | 68 | 30 | 0.0 | 1.0 | 0.00 | 0.02 | 0.02 | 86 | 1010.5 |
| 20260905235859 | 69 | 30 | 0.0 | 2.0 | 0.00 | 0.02 | 0.02 | 85 | 1010.4 |
| 20260905235758 | 69 | 30 | 0.0 | 2.0 | 0.00 | 0.02 | 0.02 | 85 | 1010.4 |
| 20260905235659 | 69 | 30 | 0.0 | 2.0 | 0.00 | 0.02 | 0.02 | 85 | 1010.4 |
| 20260905235559 | 69 | 30 | 0.0 | 2.0 | 0.00 | 0.02 | 0.02 | 85 | 1010.4 |
| 20260905235459 | 69 | 30 | 0.0 | 2.0 | 0.00 | 0.02 | 0.02 | 85 | 1010.4 |
| 20260905235258 | 69 | 30 | 0.0 | 2.0 | 0.00 | 0.02 | 0.02 | 84 | 1010.5 |
| 20260905235158 | 69 | 30 | 0.0 | 2.0 | 0.00 | 0.02 | 0.02 | 84 | 1010.5 |
| 20260905235058 | 69 | 30 | 1.0 | 2.0 | 0.00 | 0.02 | 0.02 | 84 | 1010.5 |
| 20260905234959 | 69 | 30 | 0.0 | 0.0 | 0.00 | 0.02 | 0.02 | 83 | 1010.4 |
| 20260905234859 | 69 | 30 | 0.0 | 0.0 | 0.00 | 0.02 | 0.02 | 84 | 1010.4 |
| 20260905234758 | 69 | 30 | 0.0 | 0.0 | 0.00 | 0.02 | 0.02 | 83 | 1010.4 |
| 20260905234658 | 70 | 30 | 0.0 | 1.0 | 0.00 | 0.02 | 0.02 | 83 | 1010.4 |
| 20260905234558 | 70 | 30 | 0.0 | 2.0 | 0.00 | 0.02 | 0.02 | 83 | 1010.4 |
| 20260905234359 | 70 | 30 | 0.0 | 2.0 | 0.00 | 0.02 | 0.02 | 82 | 1010.3 |
| 20260905234258 | 70 | 30 | 0.0 | 2.0 | 0.00 | 0.02 | 0.02 | 82 | 1010.3 |
| 20260905234158 | 70 | 30 | 0.0 | 2.0 | 0.00 | 0.02 | 0.02 | 82 | 1010.3 |
| 20260905234058 | 70 | 30 | 0.0 | 2.0 | 0.00 | 0.02 | 0.02 | 82 | 1010.4 |
| 20260905234000 | 70 | 30 | 0.0 | 2.0 | 0.00 | 0.02 | 0.02 | 81 | 1010.3 |
| 20260905233857 | 70 | 30 | 0.0 | 2.0 | 0.00 | 0.02 | 0.02 | 82 | 1010.3 |
| 20260905233758 | 70 | 30 | 0.0 | 2.0 | 0.00 | 0.02 | 0.02 | 82 | 1010.3 |
| 20260905233658 | 70 | 30 | 1.0 | 1.0 | 0.00 | 0.02 | 0.02 | 82 | 1010.3 |
| 20260905233557 | 71 | 30 | 0.0 | 1.0 | 0.00 | 0.02 | 0.02 | 82 | 1010.2 |
| 20260905233459 | 71 | 30 | 0.0 | 1.0 | 0.00 | 0.02 | 0.02 | 81 | 1010.2 |
| 20260905233258 | 71 | 30 | 0.0 | 1.0 | 0.00 | 0.02 | 0.02 | 80 | 1010.3 |
| 20260905233058 | 71 | 30 | 0.0 | 0.0 | 0.00 | 0.02 | 0.02 | 78 | 1010.4 |
| 20260905233003 | 71 | 30 | 0.0 | 0.0 | 0.00 | 0.02 | 0.02 | 78 | 1010.3 |
| 20260905232857 | 71 | 30 | 0.0 | 0.0 | 0.00 | 0.02 | 0.02 | 78 | 1010.3 |
| 20260905232659 | 71 | 30 | 0.0 | 0.0 | 0.00 | 0.02 | 0.02 | 78 | 1010.4 |
| 20260905232557 | 71 | 30 | 0.0 | 0.0 | 0.00 | 0.02 | 0.02 | 79 | 1010.3 |
| 20260905232459 | 71 | 30 | 0.0 | 0.0 | 0.00 | 0.02 | 0.02 | 79 | 1010.3 |
| 20260905232358 | 72 | 30 | 0.0 | 0.0 | 0.00 | 0.02 | 0.02 | 79 | 1010.3 |
| 20260905232258 | 72 | 30 | 0.0 | 0.0 | 0.00 | 0.02 | 0.02 | 78 | 1010.3 |
| 20260905232158 | 72 | 30 | 0.0 | 0.0 | 0.00 | 0.02 | 0.02 | 77 | 1010.3 |
| 20260905232059 | 72 | 30 | 0.0 | 0.0 | 0.00 | 0.02 | 0.02 | 76 | 1010.3 |
| 20260905231959 | 72 | 30 | 0.0 | 0.0 | 0.00 | 0.02 | 0.02 | 77 | 1010.3 |
| 20260905231758 | 72 | 30 | 0.0 | 1.0 | 0.00 | 0.02 | 0.02 | 77 | 1010.4 |
| 20260905231657 | 72 | 30 | 0.0 | 1.0 | 0.00 | 0.02 | 0.02 | 76 | 1010.3 |
| 20260905231558 | 73 | 30 | 0.0 | 1.0 | 0.00 | 0.02 | 0.02 | 76 | 1010.3 |
| 20260905231459 | 73 | 30 | 0.0 | 1.0 | 0.00 | 0.02 | 0.02 | 76 | 1010.3 |
| 20260905231359 | 73 | 30 | 0.0 | 1.0 | 0.00 | 0.02 | 0.02 | 76 | 1010.3 |
| 20260905231257 | 73 | 30 | 0.0 | 1.0 | 0.00 | 0.02 | 0.02 | 76 | 1010.2 |
| 20260905231158 | 73 | 30 | 0.0 | 1.0 | 0.00 | 0.02 | 0.02 | 76 | 1010.2 |
| 20260905231058 | 73 | 30 | 0.0 | 1.0 | 0.00 | 0.02 | 0.02 | 74 | 1010.2 |
| 20260905230959 | 73 | 30 | 0.0 | 1.0 | 0.00 | 0.02 | 0.02 | 74 | 1010.2 |
| 20260905230858 | 74 | 30 | 0.0 | 0.0 | 0.00 | 0.02 | 0.02 | 73 | 1010.2 |
| 20260905230757 | 74 | 30 | 0.0 | 0.0 | 0.00 | 0.02 | 0.02 | 73 | 1010.2 |
| 20260905230658 | 74 | 30 | 0.0 | 0.0 | 0.00 | 0.02 | 0.02 | 73 | 1010.2 |
| 20260905230559 | 74 | 30 | 0.0 | 0.0 | 0.00 | 0.02 | 0.02 | 73 | 1010.2 |
| 20260905230459 | 74 | 30 | 0.0 | 0.0 | 0.00 | 0.02 | 0.02 | 72 | 1010.2 |
| 20260905230358 | 74 | 30 | 0.0 | 0.0 | 0.00 | 0.02 | 0.02 | 72 | 1010.2 |
| 20260905230258 | 74 | 30 | 0.0 | 0.0 | 0.00 | 0.02 | 0.02 | 72 | 1010.2 |
| 20260905230158 | 74 | 30 | 0.0 | 1.0 | 0.00 | 0.02 | 0.02 | 74 | 1010.2 |
| 20260905230059 | 75 | 30 | 0.0 | 1.0 | 0.00 | 0.02 | 0.02 | 74 | 1010.2 |
| 20260905230001 | 75 | 30 | 0.0 | 2.0 | 0.00 | 0.02 | 0.02 | 75 | 1010.2 |
| 20260905225859 | 75 | 30 | 0.0 | 2.0 | 0.00 | 0.02 | 0.02 | 74 | 1010.2 |
| 20260905225759 | 75 | 30 | 0.0 | 4.0 | 0.00 | 0.02 | 0.02 | 74 | 1010.2 |
| 20260905225658 | 75 | 30 | 0.0 | 5.0 | 0.00 | 0.02 | 0.02 | 74 | 1010.2 |
| 20260905225559 | 75 | 30 | 0.0 | 5.0 | 0.00 | 0.02 | 0.02 | 74 | 1010.2 |
| 20260905225501 | 75 | 30 | 0.0 | 5.0 | 0.00 | 0.02 | 0.02 | 73 | 1010.2 |
| 20260905225359 | 75 | 30 | 0.0 | 5.0 | 0.00 | 0.02 | 0.02 | 69 | 1010.2 |
| 20260905225258 | 76 | 30 | 0.0 | 5.0 | 0.00 | 0.02 | 0.02 | 68 | 1010.2 |
| 20260905225159 | 76 | 30 | 1.0 | 5.0 | 0.00 | 0.02 | 0.02 | 68 | 1010.2 |
| 20260905225059 | 76 | 30 | 0.0 | 5.0 | 0.00 | 0.02 | 0.02 | 68 | 1010.2 |
| 20260905224859 | 76 | 30 | 1.0 | 5.0 | 0.00 | 0.02 | 0.02 | 67 | 1010.1 |
| 20260905224759 | 76 | 28 | 4.0 | 5.0 | 0.00 | 0.02 | 0.02 | 67 | 1010.1 |
| 20260905224659 | 76 | 22 | 3.0 | 5.0 | 0.00 | 0.02 | 0.02 | 68 | 1010.1 |
| 20260905224559 | 76 | 22 | 2.0 | 5.0 | 0.00 | 0.02 | 0.02 | 67 | 1010.1 |
| 20260905224501 | 76 | 35 | 2.0 | 5.0 | 0.00 | 0.02 | 0.02 | 67 | 1010.1 |
| 20260905224359 | 76 | 57 | 4.0 | 6.0 | 0.00 | 0.02 | 0.02 | 67 | 1010.0 |
| 20260905224258 | 76 | 65 | 0.0 | 6.0 | 0.00 | 0.02 | 0.02 | 68 | 1010.0 |
| 20260905224159 | 76 | 65 | 0.0 | 6.0 | 0.00 | 0.02 | 0.02 | 68 | 1010.0 |
| 20260905224059 | 76 | 65 | 1.0 | 6.0 | 0.00 | 0.02 | 0.02 | 68 | 1009.9 |
| 20260905223859 | 76 | 75 | 2.0 | 6.0 | 0.00 | 0.02 | 0.02 | 67 | 1009.9 |
| 20260905223700 | 76 | 75 | 0.0 | 8.0 | 0.00 | 0.02 | 0.02 | 68 | 1010.0 |
| 20260905223502 | 76 | 36 | 3.0 | 8.0 | 0.00 | 0.02 | 0.02 | 67 | 1010.0 |
| 20260905223300 | 76 | 28 | 1.0 | 8.0 | 0.00 | 0.02 | 0.02 | 68 | 1010.0 |
| 20260905223159 | 76 | 28 | 3.0 | 8.0 | 0.00 | 0.02 | 0.02 | 68 | 1010.0 |
| 20260905223000 | 76 | 30 | 1.0 | 8.0 | 0.00 | 0.02 | 0.02 | 67 | 1009.9 |
| 20260905222858 | 76 | 30 | 0.0 | 8.0 | 0.00 | 0.02 | 0.02 | 67 | 1010.0 |
| 20260905222758 | 76 | 36 | 4.0 | 4.0 | 0.00 | 0.02 | 0.02 | 68 | 1009.9 |
| 20260905222658 | 76 | 59 | 0.0 | 5.0 | 0.00 | 0.02 | 0.02 | 68 | 1010.0 |
| 20260905222500 | 76 | 59 | 3.0 | 5.0 | 0.00 | 0.02 | 0.02 | 68 | 1010.0 |
| 20260905222359 | 76 | 59 | 1.0 | 5.0 | 0.00 | 0.02 | 0.02 | 68 | 1010.0 |
| 20260905222300 | 76 | 62 | 1.0 | 5.0 | 0.00 | 0.02 | 0.02 | 68 | 1009.9 |
| 20260905222158 | 76 | 63 | 4.0 | 5.0 | 0.00 | 0.02 | 0.02 | 68 | 1010.0 |
| 20260905222059 | 76 | 63 | 1.0 | 6.0 | 0.00 | 0.02 | 0.02 | 68 | 1010.0 |
| 20260905222001 | 76 | 63 | 1.0 | 6.0 | 0.00 | 0.02 | 0.02 | 68 | 1010.0 |
| 20260905221858 | 76 | 63 | 2.0 | 8.0 | 0.00 | 0.02 | 0.02 | 68 | 1009.9 |
| 20260905221759 | 76 | 69 | 3.0 | 8.0 | 0.00 | 0.02 | 0.02 | 67 | 1009.9 |
| 20260905221659 | 76 | 46 | 2.0 | 8.0 | 0.00 | 0.02 | 0.02 | 68 | 1009.9 |
| 20260905221559 | 76 | 46 | 0.0 | 8.0 | 0.00 | 0.02 | 0.02 | 68 | 1010.0 |
| 20260905221459 | 76 | 46 | 0.0 | 8.0 | 0.00 | 0.02 | 0.02 | 68 | 1010.0 |
| 20260905221359 | 76 | 24 | 3.0 | 8.0 | 0.00 | 0.02 | 0.02 | 67 | 1010.0 |
| 20260905221300 | 76 | 42 | 2.0 | 8.0 | 0.00 | 0.02 | 0.02 | 67 | 1010.0 |
| 20260905221200 | 76 | 273 | 1.0 | 8.0 | 0.00 | 0.02 | 0.02 | 67 | 1009.9 |
| 20260905221003 | 76 | 26 | 3.0 | 3.0 | 0.00 | 0.02 | 0.02 | 67 | 1009.9 |
| 20260905220858 | 76 | 49 | 1.0 | 3.0 | 0.00 | 0.02 | 0.02 | 68 | 1009.9 |
| 20260905220800 | 76 | 49 | 0.0 | 4.0 | 0.00 | 0.02 | 0.02 | 69 | 1009.9 |
| 20260905220659 | 76 | 49 | 2.0 | 4.0 | 0.00 | 0.02 | 0.02 | 68 | 1009.8 |
| 20260905220559 | 76 | 51 | 0.0 | 4.0 | 0.00 | 0.02 | 0.02 | 68 | 1009.8 |
| 20260905220500 | 76 | 51 | 0.0 | 4.0 | 0.00 | 0.02 | 0.02 | 68 | 1009.9 |
| 20260905220358 | 76 | 44 | 1.0 | 4.0 | 0.00 | 0.02 | 0.02 | 67 | 1009.8 |
| 20260905220259 | 76 | 44 | 0.0 | 5.0 | 0.00 | 0.02 | 0.02 | 68 | 1009.8 |
| 20260905220158 | 76 | 44 | 0.0 | 5.0 | 0.00 | 0.02 | 0.02 | 68 | 1009.8 |
| 20260905220059 | 76 | 44 | 0.0 | 5.0 | 0.00 | 0.02 | 0.02 | 68 | 1009.8 |
| 20260905220002 | 76 | 44 | 2.0 | 5.0 | 0.00 | 0.02 | 0.02 | 67 | 1009.8 |
| 20260905215758 | 77 | 10 | 0.0 | 6.0 | 0.00 | 0.03 | 0.02 | 68 | 1009.8 |
| 20260905215559 | 77 | 10 | 1.0 | 8.0 | 0.00 | 0.03 | 0.02 | 67 | 1009.8 |
| 20260905215500 | 77 | 10 | 3.0 | 8.0 | 0.00 | 0.03 | 0.02 | 66 | 1009.8 |
| 20260905215400 | 77 | 11 | 2.0 | 8.0 | 0.00 | 0.03 | 0.02 | 67 | 1009.8 |
| 20260905215258 | 77 | 38 | 1.0 | 8.0 | 0.00 | 0.03 | 0.02 | 66 | 1009.8 |
| 20260905215200 | 77 | 31 | 3.0 | 8.0 | 0.00 | 0.03 | 0.02 | 67 | 1009.8 |
| 20260905214858 | 77 | 24 | 2.0 | 8.0 | 0.00 | 0.03 | 0.02 | 67 | 1009.8 |
| 20260905214758 | 77 | 60 | 0.0 | 8.0 | 0.00 | 0.03 | 0.02 | 67 | 1009.8 |
| 20260905214658 | 77 | 68 | 1.0 | 8.0 | 0.00 | 0.03 | 0.02 | 66 | 1009.9 |
| 20260905214558 | 77 | 23 | 6.0 | 6.0 | 0.00 | 0.03 | 0.02 | 66 | 1009.8 |
| 20260905214502 | 77 | 17 | 2.0 | 8.0 | 0.00 | 0.03 | 0.02 | 66 | 1009.9 |
| 20260905214358 | 77 | 66 | 3.0 | 8.0 | 0.00 | 0.03 | 0.02 | 67 | 1009.8 |
| 20260905214200 | 77 | 24 | 3.0 | 8.0 | 0.00 | 0.03 | 0.02 | 67 | 1009.8 |
| 20260905214001 | 77 | 19 | 0.0 | 8.0 | 0.00 | 0.03 | 0.02 | 67 | 1009.8 |
| 20260905213900 | 77 | 19 | 2.0 | 8.0 | 0.00 | 0.03 | 0.02 | 67 | 1009.8 |
| 20260905213758 | 77 | 19 | 2.0 | 8.0 | 0.00 | 0.03 | 0.02 | 67 | 1009.8 |
| 20260905213659 | 77 | 58 | 2.0 | 8.0 | 0.00 | 0.03 | 0.02 | 66 | 1009.8 |
| 20260905213559 | 77 | 26 | 5.0 | 8.0 | 0.00 | 0.03 | 0.02 | 66 | 1009.8 |
| 20260905213501 | 77 | 355 | 2.0 | 5.0 | 0.00 | 0.03 | 0.02 | 66 | 1009.8 |
| 20260905213359 | 77 | 355 | 2.0 | 5.0 | 0.00 | 0.03 | 0.02 | 66 | 1009.8 |
| 20260905213258 | 77 | 22 | 2.0 | 6.0 | 0.00 | 0.03 | 0.02 | 66 | 1009.9 |
| 20260905213159 | 77 | 10 | 3.0 | 6.0 | 0.00 | 0.03 | 0.02 | 67 | 1009.9 |
| 20260905213059 | 77 | 130 | 1.0 | 6.0 | 0.00 | 0.03 | 0.02 | 66 | 1009.8 |
| 20260905213002 | 77 | 130 | 1.0 | 6.0 | 0.00 | 0.03 | 0.02 | 66 | 1009.8 |
| 20260905212902 | 77 | 5 | 0.0 | 6.0 | 0.00 | 0.03 | 0.02 | 66 | 1009.8 |
| 20260905212759 | 78 | 5 | 2.0 | 6.0 | 0.00 | 0.03 | 0.02 | 65 | 1009.8 |
| 20260905212659 | 78 | 36 | 4.0 | 6.0 | 0.00 | 0.03 | 0.02 | 65 | 1009.8 |
| 20260905212600 | 78 | 360 | 1.0 | 6.0 | 0.00 | 0.03 | 0.02 | 67 | 1009.8 |
| 20260905212500 | 78 | 355 | 3.0 | 6.0 | 0.00 | 0.03 | 0.02 | 67 | 1009.8 |
| 20260905212259 | 78 | 120 | 2.0 | 8.0 | 0.00 | 0.03 | 0.02 | 67 | 1009.8 |
| 20260905212159 | 78 | 120 | 1.0 | 8.0 | 0.00 | 0.03 | 0.02 | 66 | 1009.7 |
| 20260905212001 | 78 | 120 | 0.0 | 8.0 | 0.00 | 0.03 | 0.02 | 67 | 1009.8 |
| 20260905211900 | 78 | 120 | 0.0 | 8.0 | 0.00 | 0.03 | 0.02 | 66 | 1009.7 |
| 20260905211701 | 78 | 126 | 0.0 | 8.0 | 0.00 | 0.03 | 0.02 | 65 | 1009.7 |
| 20260905211600 | 78 | 126 | 0.0 | 8.0 | 0.00 | 0.03 | 0.02 | 65 | 1009.7 |
| 20260905211500 | 78 | 55 | 0.0 | 8.0 | 0.00 | 0.03 | 0.02 | 65 | 1009.7 |
| 20260905211358 | 78 | 26 | 6.0 | 8.0 | 0.00 | 0.03 | 0.02 | 65 | 1009.7 |
| 20260905211300 | 78 | 339 | 2.0 | 4.0 | 0.00 | 0.03 | 0.02 | 65 | 1009.7 |
| 20260905211159 | 78 | 12 | 2.0 | 4.0 | 0.00 | 0.03 | 0.02 | 65 | 1009.7 |
| 20260905211059 | 78 | 61 | 0.0 | 4.0 | 0.00 | 0.03 | 0.02 | 65 | 1009.7 |
| 20260905210959 | 78 | 57 | 2.0 | 4.0 | 0.00 | 0.03 | 0.02 | 66 | 1009.7 |
| 20260905210900 | 78 | 57 | 2.0 | 5.0 | 0.00 | 0.03 | 0.02 | 65 | 1009.7 |
| 20260905210759 | 78 | 9 | 1.0 | 8.0 | 0.00 | 0.03 | 0.02 | 65 | 1009.8 |
| 20260905210700 | 78 | 11 | 1.0 | 11.0 | 0.00 | 0.03 | 0.02 | 65 | 1009.8 |
| 20260905210558 | 78 | 13 | 3.0 | 11.0 | 0.00 | 0.03 | 0.02 | 66 | 1009.8 |
| 20260905210501 | 78 | 13 | 1.0 | 11.0 | 0.00 | 0.03 | 0.02 | 65 | 1009.7 |
| 20260905210359 | 78 | 13 | 1.0 | 11.0 | 0.00 | 0.03 | 0.02 | 65 | 1009.7 |
| 20260905210259 | 78 | 15 | 2.0 | 11.0 | 0.00 | 0.03 | 0.02 | 65 | 1009.7 |
| 20260905210159 | 78 | 41 | 3.0 | 11.0 | 0.00 | 0.03 | 0.02 | 65 | 1009.7 |
| 20260905210059 | 78 | 23 | 0.0 | 11.0 | 0.00 | 0.03 | 0.02 | 65 | 1009.7 |
| 20260905210001 | 78 | 23 | 4.0 | 11.0 | 0.00 | 0.03 | 0.02 | 65 | 1009.7 |
| 20260905205858 | 78 | 5 | 2.0 | 11.0 | 0.00 | 0.03 | 0.02 | 64 | 1009.8 |
| 20260905205659 | 78 | 13 | 3.0 | 9.0 | 0.00 | 0.03 | 0.02 | 64 | 1009.8 |
| 20260905205500 | 78 | 26 | 3.0 | 9.0 | 0.00 | 0.03 | 0.02 | 66 | 1009.9 |
| 20260905205359 | 78 | 30 | 1.0 | 8.0 | 0.00 | 0.03 | 0.02 | 66 | 1009.9 |
| 20260905205258 | 78 | 44 | 3.0 | 8.0 | 0.00 | 0.03 | 0.02 | 67 | 1009.8 |
| 20260905205158 | 78 | 80 | 5.0 | 5.0 | 0.00 | 0.03 | 0.02 | 67 | 1009.9 |
| 20260905204959 | 77 | 70 | 3.0 | 5.0 | 0.00 | 0.03 | 0.02 | 68 | 1009.9 |
| 20260905204857 | 77 | 22 | 2.0 | 4.0 | 0.00 | 0.03 | 0.02 | 68 | 1009.8 |
| 20260905204759 | 77 | 15 | 2.0 | 4.0 | 0.00 | 0.03 | 0.02 | 67 | 1009.8 |
| 20260905204658 | 77 | 20 | 2.0 | 4.0 | 0.00 | 0.03 | 0.02 | 66 | 1009.8 |
| 20260905204558 | 77 | 20 | 0.0 | 4.0 | 0.00 | 0.03 | 0.02 | 67 | 1009.8 |
| 20260905204459 | 77 | 20 | 0.0 | 4.0 | 0.00 | 0.03 | 0.02 | 67 | 1009.8 |
| 20260905204358 | 77 | 20 | 2.0 | 8.0 | 0.00 | 0.03 | 0.02 | 66 | 1009.8 |
| 20260905204258 | 77 | 10 | 0.0 | 8.0 | 0.00 | 0.03 | 0.02 | 66 | 1009.8 |
| 20260905204158 | 77 | 10 | 0.0 | 8.0 | 0.00 | 0.03 | 0.02 | 66 | 1009.8 |
| 20260905204059 | 77 | 5 | 4.0 | 10.0 | 0.00 | 0.03 | 0.02 | 66 | 1009.8 |
| 20260905203859 | 77 | 18 | 4.0 | 10.0 | 0.00 | 0.03 | 0.02 | 65 | 1009.8 |
| 20260905203759 | 78 | 12 | 2.0 | 10.0 | 0.00 | 0.03 | 0.02 | 66 | 1009.9 |
| 20260905203658 | 78 | 9 | 3.0 | 10.0 | 0.00 | 0.03 | 0.02 | 67 | 1009.9 |
| 20260905203459 | 78 | 342 | 2.0 | 10.0 | 0.00 | 0.03 | 0.02 | 66 | 1009.8 |
| 20260905203358 | 78 | 36 | 2.0 | 10.0 | 0.00 | 0.03 | 0.02 | 66 | 1009.9 |
| 20260905203259 | 78 | 5 | 3.0 | 10.0 | 0.00 | 0.03 | 0.02 | 66 | 1009.9 |
| 20260905203158 | 78 | 55 | 4.0 | 10.0 | 0.00 | 0.03 | 0.02 | 66 | 1009.8 |
| 20260905203057 | 78 | 82 | 5.0 | 8.0 | 0.00 | 0.03 | 0.02 | 66 | 1009.9 |
| 20260905203000 | 78 | 27 | 6.0 | 8.0 | 0.00 | 0.03 | 0.02 | 66 | 1009.9 |
| 20260905202858 | 78 | 24 | 0.0 | 6.0 | 0.00 | 0.03 | 0.02 | 66 | 1009.8 |
| 20260905202758 | 78 | 24 | 0.0 | 6.0 | 0.00 | 0.03 | 0.02 | 67 | 1009.9 |
| 20260905202658 | 78 | 19 | 3.0 | 6.0 | 0.00 | 0.03 | 0.02 | 67 | 1009.9 |
| 20260905202558 | 78 | 16 | 3.0 | 6.0 | 0.00 | 0.03 | 0.02 | 67 | 1009.9 |
| 20260905202500 | 78 | 169 | 4.0 | 6.0 | 0.00 | 0.03 | 0.02 | 68 | 1009.9 |
| 20260905202357 | 78 | 80 | 1.0 | 6.0 | 0.00 | 0.03 | 0.02 | 67 | 1009.9 |
| 20260905202300 | 77 | 21 | 1.0 | 6.0 | 0.00 | 0.03 | 0.02 | 67 | 1009.8 |
| 20260905202158 | 77 | 13 | 1.0 | 6.0 | 0.00 | 0.03 | 0.02 | 67 | 1009.9 |
| 20260905202058 | 77 | 24 | 3.0 | 6.0 | 0.00 | 0.03 | 0.02 | 67 | 1009.9 |
| 20260905201959 | 77 | 355 | 3.0 | 5.0 | 0.00 | 0.03 | 0.02 | 67 | 1009.9 |
| 20260905201858 | 77 | 337 | 1.0 | 5.0 | 0.00 | 0.03 | 0.02 | 67 | 1009.9 |
| 20260905201758 | 77 | 348 | 2.0 | 3.0 | 0.00 | 0.03 | 0.02 | 68 | 1009.8 |
| 20260905201659 | 77 | 146 | 2.0 | 5.0 | 0.00 | 0.03 | 0.02 | 69 | 1009.9 |
| 20260905201557 | 77 | 145 | 1.0 | 5.0 | 0.00 | 0.03 | 0.02 | 68 | 1009.8 |
| 20260905201459 | 77 | 150 | 1.0 | 5.0 | 0.00 | 0.03 | 0.02 | 68 | 1009.8 |
| 20260905201359 | 77 | 144 | 2.0 | 5.0 | 0.00 | 0.03 | 0.02 | 68 | 1009.9 |